GFSWCAN_con_3kmhel_000.txt.gz
Helicity
125 113 139 130 136 138 139 116 112 99 109 101 96 95 78 70 67 122 124 116 152 188 138 138 149 107 160 157 121 125 132 104 146 115 111 132 149 143 208 171 221 201 251 354 322 385 338 173 214 183 197 119 96 95
144 148 91 74 75 83 103 118 116 107 119 114 107 104 103 99 88 113 142 135 162 209 197 131 86 62 97 62 98 183 176 136 158 141 166 144 221 241 289 267 270 329 365 233 323 374 250 230 210 163 119 104 94 91
147 152 144 98 104 86 72 90 129 127 143 136 121 119 133 125 122 134 201 193 212 223 218 289 210 126 145 124 108 217 309 226 217 236 199 241 230 359 287 245 214 286 152 350 336 410 217 181 155 132 79 80 100 105
124 159 175 141 129 129 86 86 91 111 115 145 147 174 161 116 116 138 229 206 238 218 197 235 254 164 157 116 128 181 147 103 185 202 288 390 354 267 330 350 363 282 372 497 300 202 167 95 85 78 76 81 89 74
77 107 146 172 176 129 123 127 111 124 132 139 164 189 168 125 118 168 206 231 197 239 255 193 170 149 174 119 137 129 168 185 222 349 385 388 366 301 334 311 325 544 466 336 304 188 128 126 77 58 70 84 83 102
68 80 116 142 160 158 155 153 147 139 132 151 153 182 202 154 180 271 216 220 223 271 219 285 252 275 207 192 170 137 187 257 240 299 334 308 392 330 317 332 299 371 264 237 185 94 79 79 83 56 80 72 65 82
47 88 102 118 109 138 170 219 229 224 244 217 166 145 156 181 250 347 231 200 238 264 366 325 295 258 276 251 216 134 88 249 285 342 359 269 224 218 288 229 114 163 153 97 69 87 94 63 83 60 53 50 57 95
30 43 72 74 85 123 144 161 171 196 211 278 300 299 261 293 274 318 347 319 300 346 370 370 347 339 238 277 276 275 315 293 322 273 326 299 199 286 366 280 182 109 82 77 46 53 77 71 51 53 69 79 101 115
49 48 47 50 67 86 111 115 108 121 138 154 179 184 211 239 267 253 244 299 333 346 419 409 390 322 221 206 210 239 238 232 245 423 397 259 317 421 278 152 109 48 50 27 49 58 52 61 73 82 107 108 118 149
92 89 76 67 55 50 65 92 101 115 128 148 197 192 180 206 174 152 234 267 254 254 313 435 391 378 224 271 349 198 113 208 239 228 183 337 249 149 97 75 68 28 16 83 73 78 77 92 105 99 130 178 191 179
122 108 94 70 55 56 62 62 60 58 55 125 175 192 152 78 118 128 158 190 222 307 315 303 220 193 192 182 183 117 208 182 205 210 256 270 219 58 48 48 62 74 89 96 92 70 75 91 97 123 136 152 158 151
98 96 85 87 86 75 62 64 68 80 89 90 87 63 71 118 172 191 194 197 235 210 156 142 124 115 114 131 122 144 198 179 207 281 254 249 82 129 85 92 67 71 67 61 83 85 86 111 123 118 112 92 107 111
97 102 110 95 87 84 81 77 90 95 70 89 94 101 89 117 164 171 215 200 127 98 94 107 136 116 108 96 117 155 139 232 189 178 171 71 129 90 81 48 44 64 73 80 69 61 72 109 143 118 91 100 110 104
89 94 97 104 101 99 88 87 93 99 97 114 108 124 108 111 109 108 124 129 143 145 165 161 131 92 78 86 76 96 94 58 84 121 28 185 192 143 22 -13 -1 13 68 81 61 37 74 153 140 166 160 147 105 99
64 73 75 77 80 76 76 75 85 101 107 133 110 112 92 129 126 118 111 104 98 103 76 32 -1 35 67 100 153 204 212 233 215 190 145 83 -23 -64 -16 -3 14 86 93 64 47 74 163 188 196 183 172 124 99 67
66 78 76 58 63 68 84 91 97 107 118 126 131 134 136 110 90 103 95 84 38 0 -18 -23 48 115 142 194 220 254 300 275 213 196 132 68 38 8 32 45 101 120 100 77 85 158 240 223 222 183 173 108 77 56
65 90 49 53 65 70 73 123 111 119 107 146 145 164 162 145 117 111 64 39 32 43 73 90 143 129 235 246 262 277 232 131 117 105 73 52 27 28 40 63 144 150 125 103 139 209 203 232 190 183 116 95 62 51
79 76 46 51 98 142 135 155 148 126 147 163 146 109 93 88 83 79 71 79 84 92 95 121 155 207 262 239 193 187 151 105 86 100 106 57 40 52 65 65 107 145 127 135 185 181 219 216 169 100 102 76 60 59
63 55 45 89 125 182 133 116 155 159 122 122 112 83 80 81 77 61 86 94 78 77 144 157 148 197 163 149 143 116 109 106 115 88 77 59 54 67 95 82 148 134 115 155 164 179 222 174 98 89 69 71 65 66
49 44 52 72 74 135 145 143 139 127 104 69 49 45 66 76 92 83 75 76 101 157 170 225 194 169 171 169 147 137 125 103 107 119 101 88 84 92 84 97 173 114 135 142 132 172 150 96 73 63 65 81 80 76
67 33 41 67 72 93 109 98 91 70 58 51 49 68 65 77 79 92 90 76 129 195 179 199 228 222 167 151 146 141 144 150 150 142 117 88 89 129 114 168 146 135 136 127 127 110 81 66 60 67 85 95 95 83
80 82 124 117 101 127 131 135 150 146 112 125 132 112 99 93 102 147 106 127 168 168 202 187 170 157 143 121 124 115 130 146 149 138 107 106 120 122 98 111 123 129 141 121 87 67 48 54 64 72 94 101 83 76
107 120 117 169 151 218 211 174 204 184 189 149 150 133 122 123 158 132 114 129 193 224 170 145 170 165 183 168 134 100 106 115 110 109 97 106 103 106 115 145 155 133 95 52 30 45 56 64 79 106 109 90 76 72
144 119 120 113 117 164 176 179 203 221 209 219 180 163 172 179 155 138 179 204 247 185 145 142 122 136 130 109 119 107 78 60 57 67 79 84 96 115 93 81 80 82 64 56 63 75 79 93 112 111 90 73 61 49
118 122 145 193 187 197 202 219 234 218 205 195 194 173 177 156 162 180 210 174 108 118 119 78 62 48 48 29 25 28 60 26 36 43 45 81 94 136 92 77 74 79 77 83 80 88 92 110 106 81 61 46 43 41
146 126 155 165 222 247 232 221 221 209 182 181 198 199 224 200 200 169 163 120 107 82 93 79 60 48 70 85 8 -34 20 73 29 40 50 69 86 89 91 96 90 64 52 59 71 81 95 104 89 65 47 35 39 45
187 179 172 212 248 253 219 218 215 208 201 259 199 191 214 239 171 163 122 95 98 99 92 58 37 41 51 28 56 51 22 25 21 27 53 69 87 84 98 89 60 53 74 73 68 77 90 94 68 47 38 41 52 61
157 154 152 217 253 235 188 201 211 242 266 309 309 289 280 238 172 113 95 120 124 151 114 89 67 60 46 34 25 20 31 54 63 71 89 97 95 99 90 79 65 49 59 82 88 92 98 87 75 68 59 56 71 72
155 251 204 199 246 229 219 256 236 296 331 326 246 250 300 283 162 110 98 126 134 125 99 64 51 64 55 45 45 36 43 67 99 65 74 88 79 73 77 71 65 76 97 138 142 127 128 128 117 97 90 84 85 76
134 268 243 227 257 233 278 302 235 203 209 191 153 100 20 97 158 165 122 113 119 113 101 84 61 53 55 55 54 60 61 69 64 73 43 44 97 126 106 98 112 125 140 168 188 189 167 146 122 100 90 88 91 88
173 216 230 265 279 235 224 237 211 190 177 179 151 103 18 128 131 131 150 130 114 108 90 80 61 72 81 79 71 57 59 77 65 77 70 59 81 120 126 123 113 114 118 120 123 122 121 109 104 106 101 100 98 86
150 140 167 158 154 158 155 131 142 143 146 155 144 151 146 138 124 118 170 150 123 104 94 83 96 106 97 85 75 80 114 103 103 99 91 98 125 128 98 95 110 95 84 82 86 95 95 95 97 97 97 88 83 78
192 159 143 148 126 125 111 112 99 112 119 139 130 137 140 141 143 173 160 145 117 114 115 115 109 104 111 110 100 106 127 127 134 139 150 150 142 131 115 105 95 86 80 78 87 92 95 97 97 92 85 82 80 81

GFSWCAN_con_3kmhel_006.txt.gz
Helicity
221 130 128 132 124 122 124 117 108 106 92 98 85 80 84 84 93 98 102 87 123 128 88 86 66 77 87 108 123 116 142 137 211 208 195 198 204 175 237 171 162 158 192 250 302 335 312 105 181 198 90 74 64 33
219 206 171 148 124 137 132 117 137 122 112 109 96 84 81 81 77 94 97 97 131 137 170 161 114 51 69 41 97 138 191 161 187 167 161 169 250 296 299 258 106 257 160 233 303 312 196 108 61 117 16 70 71 82
92 105 159 163 60 117 147 162 145 141 128 111 95 86 86 101 96 90 128 127 146 169 145 161 128 59 86 106 124 177 191 205 198 187 191 244 269 303 310 286 273 258 154 239 175 237 177 120 76 71 105 80 54 83
112 92 96 160 147 79 115 151 156 129 141 130 110 103 137 144 131 130 172 132 197 200 144 96 65 82 101 94 130 107 121 100 132 167 220 309 350 256 335 302 262 260 245 248 240 219 143 134 115 97 79 93 186 140
81 92 91 77 72 69 84 128 175 178 173 149 128 146 158 146 132 140 138 160 155 222 178 140 190 174 145 97 101 58 104 125 172 272 335 339 356 329 313 284 328 312 230 248 205 129 126 150 118 86 120 139 89 147
47 67 67 73 81 68 65 59 70 76 68 84 122 99 87 137 186 198 161 170 261 305 233 166 145 227 105 106 176 121 169 199 216 305 346 311 346 367 321 269 222 215 197 152 178 122 86 104 90 143 165 76 129 135
72 56 60 56 76 99 94 81 54 61 78 84 99 116 132 158 295 278 237 256 202 242 277 254 120 246 239 202 152 87 85 154 231 277 333 307 329 427 435 325 200 188 123 89 98 94 215 128 144 61 120 237 121 160
56 46 45 58 61 86 117 111 105 106 93 87 93 113 138 227 306 323 408 284 302 278 274 247 226 242 263 256 234 275 258 278 306 336 383 349 325 375 378 331 204 109 46 82 141 111 112 190 190 157 181 136 112 121
53 52 36 35 38 50 73 98 98 107 127 165 227 258 258 249 230 256 281 270 309 312 241 285 325 271 263 251 200 209 256 231 259 309 296 294 330 456 384 191 142 123 119 285 170 177 200 166 125 110 131 105 83 58
68 66 56 52 43 29 50 79 91 82 98 136 188 227 262 240 164 139 248 292 346 355 366 310 314 313 189 185 183 202 225 266 321 300 216 373 375 213 179 113 111 300 309 230 157 135 193 125 155 136 111 80 119 82
82 86 78 67 62 49 44 58 71 86 149 172 207 243 208 141 156 179 171 213 229 264 240 309 249 284 256 255 214 165 230 243 314 251 302 336 302 136 113 231 278 205 130 151 196 157 133 156 111 65 46 134 186 144
85 103 96 84 82 75 71 55 53 119 155 167 152 174 196 202 216 202 227 236 224 200 217 205 195 223 261 199 227 204 261 230 293 279 292 312 218 170 187 163 155 135 191 185 107 60 47 42 60 84 89 149 182 163
117 121 116 111 94 82 89 89 91 79 49 109 164 180 157 189 233 249 281 316 285 300 271 223 235 212 186 172 209 184 206 190 217 230 278 248 92 60 194 269 298 222 139 129 79 26 6 16 50 85 105 160 165 183
132 133 119 105 104 78 94 98 88 110 138 158 157 191 171 185 221 268 298 257 212 197 201 196 238 204 141 156 165 218 167 195 303 314 298 215 237 244 223 184 107 100 95 56 22 5 41 88 112 143 129 162 189 220
110 105 106 91 84 95 101 97 111 139 154 174 152 182 176 223 236 175 163 161 151 138 153 173 176 198 195 192 181 216 245 271 257 277 239 197 164 217 238 170 134 96 33 40 37 43 94 99 128 150 161 195 231 220
129 131 122 109 111 103 96 98 132 137 177 172 175 199 187 190 166 167 169 186 118 150 125 121 156 171 158 187 220 287 363 330 267 262 192 157 154 134 137 107 67 65 67 55 50 56 77 93 124 159 191 210 202 204
73 103 74 102 93 82 122 189 149 169 139 183 181 199 195 171 168 146 120 94 97 104 135 106 162 146 190 240 300 354 313 183 173 167 150 130 122 112 109 91 106 87 66 80 58 77 90 120 143 155 173 187 168 117
134 50 87 88 92 128 168 139 143 149 181 147 138 125 125 122 116 111 99 83 129 130 136 170 179 202 330 276 229 196 183 171 146 113 89 83 74 80 93 117 92 83 75 92 92 124 127 103 121 168 154 101 129 127
53 54 66 48 95 136 110 112 128 146 118 131 132 134 79 89 78 70 105 106 101 95 156 202 220 241 235 198 150 119 110 112 103 84 87 77 94 102 105 92 95 97 91 78 89 155 103 107 153 138 91 118 105 96
83 71 38 39 99 117 123 116 125 140 127 85 54 48 57 78 86 105 89 93 97 166 226 303 284 238 213 162 143 144 117 100 96 87 91 107 113 115 132 131 131 111 110 85 128 56 75 112 134 93 119 99 86 97
79 74 58 58 108 123 116 103 118 105 98 113 86 52 73 57 69 92 82 82 140 243 210 222 180 188 168 155 147 132 114 118 121 118 124 142 145 143 150 152 127 121 99 116 98 61 113 112 120 109 86 85 107 105
101 114 120 89 113 118 114 100 95 74 99 92 95 96 83 82 83 107 98 122 165 162 159 158 135 120 113 101 101 99 105 103 83 101 116 117 118 123 122 102 79 86 84 111 77 90 113 118 96 141 124 85 83 75
128 108 101 89 91 85 76 65 102 105 104 78 71 76 76 82 99 75 126 106 136 151 119 101 81 80 97 92 101 102 96 78 100 98 117 117 118 125 115 97 92 106 80 63 101 94 109 144 155 140 91 82 74 68
97 82 85 65 78 102 123 112 119 116 107 99 95 87 95 108 108 115 133 126 123 106 112 98 102 97 98 88 97 103 98 85 83 86 90 86 101 120 126 92 110 111 97 78 85 117 147 139 141 108 78 80 72 66
106 108 147 154 155 162 171 165 148 127 137 114 76 89 122 100 121 123 111 110 130 98 106 92 72 72 87 88 92 95 76 61 79 94 75 64 103 69 48 66 71 64 101 139 167 186 155 131 93 70 76 77 63 72
142 148 143 183 208 199 187 163 145 130 104 86 124 123 119 94 110 131 105 82 81 69 79 81 94 82 87 86 81 82 75 118 106 78 45 35 69 55 35 44 33 84 122 120 103 89 77 66 71 74 77 70 71 69
190 212 190 168 166 165 179 160 144 131 120 143 144 88 93 106 115 140 82 55 66 77 86 91 89 76 53 57 76 98 116 92 82 75 20 42 52 69 73 57 39 70 86 108 72 63 66 71 77 70 65 78 81 74
199 217 205 196 186 185 155 145 144 140 132 124 115 98 143 165 167 121 117 112 113 116 108 121 118 70 46 66 86 90 95 95 74 49 58 79 92 83 69 63 77 68 74 74 55 72 70 71 74 71 86 91 102 109
223 207 175 134 127 143 125 124 123 156 164 146 105 87 96 100 86 75 93 98 135 155 138 127 100 88 87 80 107 104 104 97 72 31 11 20 34 69 103 82 75 88 99 90 62 59 71 108 124 112 114 138 152 149
161 169 150 127 114 112 134 171 115 127 119 126 104 26 -3 51 97 104 77 127 167 164 141 128 113 92 73 80 90 82 73 76 108 101 61 51 55 29 29 76 95 99 98 104 106 114 164 201 226 204 172 150 114 98
149 97 74 65 37 61 98 109 158 156 168 125 137 96 91 53 58 136 147 179 185 173 125 94 76 97 97 108 109 84 78 139 132 97 69 49 46 45 54 77 98 92 107 134 112 113 142 152 153 152 141 123 114 122
154 123 89 -15 5 64 105 76 71 63 68 71 43 84 79 120 112 150 191 152 119 99 129 158 136 139 157 124 118 136 146 135 113 91 92 103 94 66 55 57 64 73 85 94 96 91 97 115 125 109 89 87 106 119
77 65 47 55 62 69 71 98 90 91 66 29 31 44 54 123 158 228 190 172 169 171 157 132 117 113 120 128 149 138 133 115 117 131 137 140 140 141 132 116 90 80 77 78 87 83 81 86 84 90 106 139 143 151

GFSWCAN_con_3kmhel_009.txt.gz
Helicity
277 187 149 125 120 126 121 120 104 100 101 92 92 89 96 104 113 110 96 110 132 136 88 88 100 81 100 150 148 128 173 145 180 153 153 146 148 137 229 204 184 198 177 209 219 303 205 172 95 139 128 100 68 115
282 280 247 176 146 135 146 130 116 106 98 94 102 107 104 108 106 111 121 109 116 134 107 106 79 48 87 112 152 181 169 180 164 211 163 171 231 274 271 264 271 294 268 235 296 347 254 133 119 143 101 105 116 109
215 377 333 253 173 163 153 133 120 115 110 95 93 102 97 113 110 119 126 110 128 150 134 163 110 91 118 161 168 236 186 171 212 226 242 253 324 275 320 320 342 304 239 301 269 362 215 143 115 98 137 135 162 229
168 140 265 268 204 168 147 131 140 136 119 111 105 113 96 109 117 143 139 111 147 159 175 174 154 158 114 105 101 153 123 140 183 194 193 243 258 234 328 363 385 378 305 282 275 211 165 159 145 119 156 168 229 24
50 38 58 107 175 237 212 133 99 104 120 118 127 123 108 100 126 149 152 163 186 205 223 190 275 170 143 124 95 55 138 182 201 218 209 251 289 301 353 360 400 420 270 282 244 164 155 167 165 128 234 148 28 115
26 38 57 61 65 98 170 133 117 124 119 130 149 124 132 167 182 275 209 244 238 299 195 166 181 121 112 92 107 92 128 166 163 226 275 261 304 305 277 346 262 220 235 237 242 203 140 206 116 140 123 223 219 142
39 35 30 50 63 72 63 69 51 59 71 84 91 113 128 156 219 258 173 127 106 257 232 163 156 181 164 129 115 128 170 191 152 185 281 287 323 344 377 314 170 209 219 183 119 136 254 207 132 169 231 182 74 164
64 47 50 39 79 87 94 94 71 42 32 44 57 66 76 123 249 248 295 258 345 329 307 218 248 258 176 160 129 185 192 228 272 257 337 304 361 455 479 334 192 176 129 93 190 236 169 232 264 268 190 145 84 139
75 56 44 57 70 89 113 113 93 93 80 73 112 142 174 167 178 163 207 302 366 325 243 230 221 129 129 131 222 287 267 252 262 344 301 307 354 409 375 255 201 156 192 240 305 346 369 199 92 60 66 80 68 89
64 57 45 45 53 50 56 68 65 97 134 174 207 190 195 185 144 123 158 164 149 226 308 230 261 232 189 221 275 286 221 216 258 242 253 356 380 245 170 123 155 282 324 381 316 253 75 51 53 83 41 68 83 122
58 63 54 48 53 45 41 41 37 99 138 154 191 204 168 124 168 209 182 203 224 281 213 220 220 249 287 265 245 176 225 236 272 238 291 320 313 165 122 235 306 317 221 138 135 153 122 88 41 45 86 100 75 108
49 64 76 74 64 51 40 35 50 108 103 116 123 159 173 166 178 204 222 223 216 175 178 203 185 220 262 259 270 253 312 306 309 277 310 303 120 94 182 229 352 247 215 257 201 102 86 24 5 51 83 102 110 139
51 73 87 83 73 68 58 63 99 55 79 102 137 152 131 171 200 186 222 262 270 285 244 219 214 197 218 228 276 270 261 226 232 268 247 109 103 291 276 293 320 300 240 128 99 64 -3 -34 20 85 89 136 125 127
75 78 104 109 107 95 75 92 115 115 115 138 140 166 134 154 192 266 259 200 171 179 181 198 206 184 165 209 204 210 158 216 274 267 158 255 267 265 250 176 110 86 59 44 21 -8 -26 36 75 90 119 129 113 152
116 134 151 138 138 115 104 103 145 133 132 147 136 157 172 212 221 178 143 139 154 195 217 228 223 206 216 219 171 239 264 268 206 140 233 166 140 118 117 108 87 53 29 13 23 51 78 79 87 111 113 103 123 189
160 191 174 129 118 103 85 160 182 141 160 144 148 173 172 171 135 137 136 140 135 155 161 171 204 216 177 192 265 266 315 234 208 237 121 101 74 36 1 -13 -4 24 58 89 108 124 132 143 156 152 152 119 123 192
180 167 112 107 93 127 171 181 168 162 136 179 164 171 159 137 111 97 113 134 135 171 193 174 183 112 189 234 301 277 312 207 175 144 101 70 39 19 17 39 61 90 118 125 125 143 162 192 196 163 124 82 111 167
147 83 115 142 144 147 195 178 147 142 163 137 121 99 113 118 111 116 106 133 141 116 150 142 159 246 287 315 352 289 190 95 43 -0 -6 45 47 51 68 98 101 122 135 144 162 167 186 166 148 99 70 83 134 104
85 69 85 61 109 141 115 121 131 141 112 109 114 100 85 85 78 87 117 115 131 154 194 229 216 281 294 270 169 118 95 98 111 87 67 71 71 76 101 117 131 144 149 145 144 130 162 144 98 67 69 137 105 100
76 57 36 79 145 126 129 118 116 123 113 80 95 84 90 88 88 113 125 132 154 200 251 331 309 258 231 175 157 143 113 91 86 99 89 73 97 109 120 127 129 124 126 124 116 139 164 115 82 98 124 113 99 69
131 115 147 129 137 135 120 98 92 72 71 94 73 82 61 79 128 104 118 109 165 284 257 217 225 221 209 167 141 148 135 132 125 143 133 128 117 116 128 118 125 137 150 126 107 102 123 109 42 137 133 104 91 107
121 118 121 114 117 122 103 84 69 66 78 77 104 108 116 94 84 116 115 193 226 243 260 241 227 213 170 139 120 133 135 136 141 161 140 142 133 124 104 106 126 129 129 103 92 99 78 25 121 137 103 79 87 115
131 111 106 99 88 70 58 86 94 88 89 83 92 85 67 90 84 104 130 159 207 202 181 172 161 149 138 116 130 117 125 123 123 150 149 126 116 125 103 101 122 101 78 86 112 92 75 62 126 128 147 123 123 111
101 69 59 47 58 56 77 83 93 89 92 111 87 90 108 103 95 140 189 217 197 169 165 145 145 121 132 122 120 114 106 121 122 103 100 115 102 75 86 92 94 97 98 104 78 80 100 106 134 165 162 134 113 90
69 37 50 58 81 101 110 118 119 126 129 113 134 127 138 127 138 167 178 159 184 156 135 145 137 123 125 99 89 92 79 116 107 109 117 106 77 50 49 73 71 95 82 81 93 84 123 150 169 158 106 84 85 73
87 94 92 110 160 159 139 143 146 144 173 158 137 119 139 118 147 128 131 110 83 74 90 99 93 90 85 100 107 77 40 77 111 113 102 109 94 78 57 21 39 59 71 113 99 77 74 88 89 72 63 66 66 74
144 163 188 196 219 184 174 166 168 169 147 149 152 158 143 174 163 172 130 89 85 63 62 71 74 91 91 86 102 112 110 106 89 101 122 138 108 89 97 104 81 71 26 15 69 68 56 69 86 81 75 88 86 89
133 202 271 226 217 223 226 207 192 186 176 181 205 192 190 173 159 131 118 102 98 81 86 81 87 114 139 138 135 122 94 80 76 103 128 102 81 111 121 138 138 93 69 32 51 71 76 72 77 90 98 104 98 82
242 240 237 223 232 212 199 201 214 233 225 200 161 152 156 120 90 116 90 59 30 64 70 94 143 160 151 122 106 93 82 81 82 76 58 66 61 73 58 30 38 75 103 74 54 63 68 75 78 105 132 138 159 169
182 224 219 205 218 213 234 223 179 172 150 145 123 31 -63 -9 88 129 44 34 105 116 123 125 129 143 101 74 50 60 77 93 113 114 101 75 73 71 61 54 60 69 89 75 82 84 66 73 117 183 217 208 189 171
165 162 140 133 120 125 129 121 119 116 121 90 85 13 2 48 37 97 139 161 170 175 155 121 91 78 90 104 110 105 96 131 138 125 108 86 83 66 57 51 44 43 53 61 62 69 91 104 126 161 125 129 128 144
130 117 96 59 56 105 115 82 84 52 80 56 -11 91 48 77 92 171 199 183 156 137 146 140 128 133 119 109 112 146 151 126 125 127 125 109 100 105 104 84 65 69 72 72 69 69 74 85 88 84 80 87 88 112
106 95 71 71 87 89 88 92 75 88 70 14 29 94 97 119 147 190 187 211 161 136 117 108 96 99 108 107 141 127 121 112 128 136 125 117 113 108 100 105 109 115 102 101 93 82 80 89 95 112 139 167 187 199

GFSWCAN_con_3kmhel_012.txt.gz
Helicity
285 156 118 103 98 97 94 90 87 92 95 92 101 117 117 120 136 131 133 140 114 114 106 113 106 98 144 157 165 131 185 171 219 207 224 190 160 127 218 192 173 197 178 214 246 326 224 208 207 168 142 112 116 150
223 154 143 101 84 92 99 97 99 92 96 94 91 93 95 105 112 133 140 148 135 128 107 105 83 69 68 90 153 179 182 191 203 256 227 227 193 237 241 260 316 268 262 280 359 349 308 211 102 121 80 127 139 191
199 130 133 128 117 108 94 117 113 119 108 102 102 100 93 93 94 123 122 130 157 149 133 161 111 101 112 115 130 216 218 221 248 224 223 166 241 293 292 256 273 253 280 396 288 288 212 159 124 107 144 174 187 212
128 187 271 213 186 157 126 118 124 133 123 116 115 117 105 97 100 109 121 123 175 163 187 193 164 99 76 129 174 187 144 159 170 236 212 188 206 189 286 297 258 303 375 350 249 187 153 135 135 181 265 261 232 175
101 185 234 339 297 248 189 167 144 145 144 117 119 119 116 99 124 133 138 154 152 221 196 240 152 51 106 173 149 135 194 179 177 151 196 214 265 313 299 322 404 414 343 333 294 164 166 170 158 165 210 333 386 237
70 179 203 253 277 352 229 186 217 180 131 125 127 127 126 123 151 177 198 139 141 192 196 151 115 135 165 137 94 92 141 171 202 191 153 201 353 312 256 311 224 266 250 200 186 104 146 197 342 326 327 152 184 175
21 33 36 32 72 114 195 208 145 132 109 121 102 97 127 137 206 248 233 234 145 265 247 147 113 101 101 95 92 74 106 113 139 161 242 253 268 286 314 283 290 237 216 162 151 137 252 304 277 321 251 84 32 28
40 31 35 38 58 69 92 114 122 167 131 107 121 134 157 176 255 247 274 269 213 155 162 111 149 172 155 123 124 162 154 145 155 235 322 265 294 313 313 255 219 152 113 129 244 289 277 349 267 222 127 69 22 59
67 40 37 48 64 84 75 97 73 52 56 82 109 136 172 188 272 205 158 232 298 210 168 194 157 121 178 161 152 170 165 175 208 301 281 266 290 353 286 187 135 116 115 192 288 346 399 346 273 211 80 32 69 56
62 53 47 54 53 56 85 79 142 193 132 152 217 182 179 160 150 107 132 110 110 199 240 197 253 208 143 152 162 161 152 236 280 278 226 285 287 192 53 86 119 233 245 277 387 350 367 237 7 63 26 30 39 42
56 60 60 57 51 41 54 63 119 167 154 192 185 177 172 155 178 162 161 164 201 251 222 225 190 235 242 213 193 160 175 220 245 245 269 288 225 123 183 280 289 289 281 222 135 80 -7 82 95 36 20 42 47 76
50 52 53 57 55 55 46 37 94 108 136 154 139 181 158 154 159 141 190 223 208 194 174 157 165 183 222 199 170 179 205 213 212 239 285 287 206 253 384 411 384 317 176 179 219 277 227 116 -9 -14 2 32 90 141
47 50 58 61 60 64 65 103 116 113 114 145 157 171 157 191 217 216 248 272 257 264 213 174 150 132 177 187 222 218 228 207 254 281 274 172 185 243 186 104 109 129 136 119 124 -1 -35 -24 -10 35 49 102 116 123
53 69 70 76 80 77 95 118 120 112 114 130 127 152 145 167 195 242 240 198 179 154 138 154 158 138 132 159 169 179 188 229 289 253 143 240 230 182 134 120 136 101 57 17 -8 -39 -37 7 83 128 152 155 156 140
78 83 92 88 94 97 110 137 117 104 135 126 117 139 145 181 185 147 121 124 123 117 131 167 186 163 172 179 167 217 254 247 160 127 207 229 185 154 106 52 13 -12 -16 -26 4 76 108 125 131 132 157 157 139 120
142 168 120 114 122 128 151 155 136 124 140 150 157 167 152 145 137 116 97 102 92 111 126 144 161 178 152 197 272 231 237 160 153 193 167 131 58 1 -40 -31 -2 38 69 98 117 133 128 143 134 142 161 136 112 95
163 155 86 104 162 190 188 143 133 152 127 170 165 154 128 109 88 77 81 89 98 127 131 153 163 108 222 244 266 224 201 108 138 142 105 19 -14 -16 -15 16 60 83 95 102 116 133 150 159 158 144 146 109 100 78
137 95 115 142 182 204 200 155 144 153 159 143 123 80 73 77 77 79 75 107 121 106 137 134 170 225 227 227 244 186 134 98 14 -32 9 29 39 19 33 78 75 91 106 110 131 137 146 143 138 133 144 153 82 85
110 109 139 142 120 140 142 138 141 142 116 104 96 83 76 69 68 92 89 101 130 135 182 218 195 243 239 202 122 111 99 89 105 75 45 26 65 79 78 80 111 112 109 115 112 123 130 124 121 125 172 145 71 123
75 84 90 127 145 121 137 124 112 124 84 74 88 83 69 62 65 98 113 133 141 170 199 245 250 246 189 159 152 139 111 73 80 89 82 82 92 87 105 133 130 106 101 106 128 141 128 108 118 113 114 81 108 97
146 148 169 133 139 129 115 101 104 81 78 77 63 90 70 90 107 112 92 108 170 236 228 196 207 179 167 159 169 168 141 136 132 154 111 94 101 152 131 112 104 101 114 112 101 94 88 108 95 109 59 108 86 80
168 146 152 137 120 121 110 93 81 64 78 76 85 76 82 81 86 83 96 164 172 152 209 222 214 213 189 163 138 149 136 133 130 143 150 168 148 105 103 98 97 78 80 82 76 70 85 85 73 73 89 91 75 104
147 124 113 92 92 97 74 82 94 62 71 46 65 65 64 80 61 92 117 125 140 175 201 198 188 201 180 148 147 141 149 135 124 125 136 132 122 128 107 98 86 81 64 53 93 96 102 68 61 79 103 101 98 128
104 83 74 63 77 69 63 55 59 62 78 79 72 75 81 71 87 136 148 139 170 197 215 197 201 163 128 119 129 132 125 129 109 102 101 112 94 75 75 84 78 72 101 7 76 76 100 84 99 101 132 147 158 139
71 41 50 37 45 55 59 72 79 92 70 78 110 102 94 100 117 152 164 137 146 154 140 99 99 103 107 101 96 73 77 108 89 76 80 92 92 69 78 105 115 79 87 74 79 50 101 90 100 115 118 99 72 72
36 23 27 25 54 84 57 68 60 66 110 114 92 97 130 116 139 97 113 118 112 88 70 68 71 84 66 62 65 77 89 101 129 136 113 91 95 98 111 104 72 62 111 106 55 26 67 79 59 62 73 66 58 69
79 55 70 116 130 126 119 108 124 143 130 125 119 148 147 164 122 126 88 84 96 63 68 84 97 78 75 77 86 100 130 184 164 126 106 99 88 109 127 124 91 106 96 96 83 57 49 62 52 57 84 84 76 82
86 137 187 182 185 194 180 183 174 164 162 176 232 232 207 177 178 141 92 72 79 88 65 52 84 95 87 64 65 133 169 155 112 98 97 88 102 119 115 115 95 75 59 63 66 55 57 62 64 68 88 103 101 109
171 194 204 182 208 214 235 249 247 241 230 230 192 164 148 161 149 121 89 63 45 5 -28 -14 38 79 99 105 101 96 105 104 97 74 67 75 89 88 92 93 91 82 77 79 79 67 56 58 47 47 58 99 122 139
136 168 173 159 187 214 220 208 203 167 164 166 170 169 152 66 129 153 126 1 19 27 57 62 71 98 102 90 79 79 94 115 118 113 114 88 80 87 79 73 67 58 57 61 65 58 59 61 69 89 129 171 193 206
103 132 148 132 87 107 145 165 160 154 152 115 99 47 -62 -9 115 130 149 121 117 108 116 121 134 168 140 133 135 121 116 130 127 111 99 94 93 92 87 72 63 58 57 55 57 56 58 55 61 70 87 105 119 120
110 89 75 21 47 103 124 123 127 129 115 139 112 158 176 182 149 163 161 159 180 174 165 178 186 148 138 98 111 129 136 109 110 118 127 116 112 101 91 88 83 76 64 64 64 61 62 69 66 63 65 82 101 119
94 85 89 86 118 133 112 137 115 107 133 138 120 138 173 171 150 196 190 182 110 100 98 80 68 82 98 95 91 89 85 90 114 121 117 108 102 92 84 83 81 83 91 105 108 103 106 105 105 139 182 192 190 179

GFSWCAN_con_3kmhel_015.txt.gz
Helicity
412 155 129 125 118 99 100 98 100 105 101 96 95 107 133 171 197 141 119 132 102 108 80 69 89 124 146 162 157 138 186 150 182 179 198 174 232 168 231 187 153 110 125 183 243 255 145 156 287 250 172 167 160 129
356 339 134 143 135 129 111 96 94 95 97 96 92 93 99 116 158 158 140 137 121 108 80 74 73 90 114 123 185 204 203 172 153 216 175 237 253 290 252 237 228 201 243 230 287 265 230 268 285 164 100 130 115 165
330 381 262 165 148 127 114 108 97 92 93 96 96 94 99 113 142 141 124 132 135 113 84 97 64 92 125 136 162 283 210 173 182 206 233 212 268 282 258 205 208 223 231 331 267 251 197 172 122 34 124 155 173 174
89 227 298 227 139 133 125 115 98 92 93 93 94 100 100 98 107 140 135 124 141 116 122 110 101 90 148 187 180 169 140 172 255 295 277 263 333 199 245 197 275 246 297 287 249 182 154 146 183 137 197 260 256 332
100 198 185 257 195 162 133 106 110 102 110 109 102 100 109 119 127 153 149 120 124 147 157 141 92 97 130 187 164 144 163 190 260 297 259 238 247 229 272 307 314 373 319 246 272 144 164 187 220 218 319 312 333 253
76 148 223 267 234 174 142 134 123 114 120 123 119 111 130 156 172 179 162 119 128 148 165 197 178 166 227 264 185 170 201 224 189 171 167 178 234 225 234 273 231 233 215 184 166 143 172 191 215 406 233 259 286 172
61 133 176 190 288 345 200 211 216 179 173 157 142 141 150 147 232 244 186 162 97 192 197 166 135 114 35 62 85 89 76 98 153 144 211 209 221 254 323 281 207 146 167 135 130 185 229 358 279 112 165 207 195 195
38 129 127 171 160 205 319 286 251 233 208 220 198 181 153 207 248 236 244 228 168 198 200 257 290 329 222 175 138 130 121 150 170 196 250 227 211 306 294 234 157 131 140 164 192 228 203 139 217 285 272 222 168 119
18 24 41 58 63 80 99 177 201 199 195 220 328 199 288 284 284 262 219 261 214 245 287 352 288 170 206 181 128 142 171 175 177 242 243 216 245 258 204 173 146 108 102 186 381 439 441 390 281 232 214 177 89 106
50 41 56 41 50 49 69 45 63 62 103 155 287 285 287 251 123 46 107 194 317 301 285 340 335 293 115 95 175 188 209 206 281 254 186 256 275 262 232 149 183 189 197 191 245 272 171 112 102 132 43 75 73 51
68 61 60 50 39 43 95 143 120 149 189 164 212 241 111 122 135 145 155 172 226 323 246 233 134 188 204 148 174 133 178 223 263 268 302 331 366 269 294 373 378 328 293 232 165 182 113 162 184 125 49 25 -5 38
71 65 59 61 52 41 59 117 120 138 170 155 152 187 172 145 155 201 286 304 314 269 178 119 104 136 178 177 161 179 205 202 253 248 267 334 222 223 302 303 262 172 117 74 15 74 86 98 41 15 38 32 49 83
56 61 66 69 59 55 62 79 119 91 110 161 168 168 159 183 249 269 301 333 243 188 168 148 176 172 183 197 208 228 247 243 235 251 280 173 212 222 177 126 106 75 70 87 99 60 27 15 23 48 89 131 156 154
56 57 61 64 64 62 77 105 94 102 119 132 117 143 150 155 197 241 230 198 185 171 139 154 162 157 163 200 192 208 205 223 294 253 132 199 243 179 147 134 116 79 55 52 12 -15 4 45 104 126 160 152 147 141
60 72 80 77 72 85 96 100 89 79 126 134 127 123 144 164 167 144 124 143 136 134 140 152 159 151 171 178 160 210 239 218 117 82 151 196 164 133 116 88 56 26 6 -13 21 68 98 113 118 117 133 150 152 166
123 130 109 76 81 87 89 91 108 98 126 131 146 152 144 133 133 114 115 116 97 125 122 139 164 199 176 209 255 219 179 94 100 138 128 121 112 104 92 72 52 54 74 104 119 118 103 110 119 122 132 138 142 135
169 182 97 127 133 145 143 113 130 144 113 138 132 141 117 117 87 97 95 78 75 124 153 151 181 133 216 252 212 147 145 100 124 98 77 81 80 88 83 77 79 106 107 114 112 99 98 115 128 138 130 96 110 137
162 126 156 174 193 152 138 131 131 140 148 126 105 77 82 88 90 84 65 80 125 139 147 178 186 225 221 159 176 133 89 58 71 81 125 100 75 85 97 93 99 109 111 114 117 105 108 94 106 119 104 96 86 98
113 117 118 132 117 130 142 147 130 129 102 93 90 84 83 79 77 92 96 121 117 132 154 188 185 163 166 151 85 73 76 69 88 79 68 61 83 94 107 106 109 109 105 98 86 92 98 87 103 94 108 108 108 92
102 146 175 160 125 149 155 127 122 119 89 79 87 80 75 71 81 93 111 119 133 150 167 188 196 182 143 145 128 120 128 112 104 98 81 94 98 94 105 118 121 114 102 96 98 94 72 69 71 82 92 104 102 70
218 182 157 136 143 128 114 95 107 75 84 92 78 77 77 92 94 106 97 105 160 199 205 170 176 174 168 155 156 178 153 152 141 150 116 98 85 122 127 110 105 102 100 75 65 73 64 75 65 90 82 65 71 68
162 136 132 122 103 111 109 99 85 79 90 77 84 83 93 97 83 77 109 147 150 149 173 180 168 155 148 152 158 194 165 148 138 145 135 138 110 95 97 99 93 90 80 91 85 78 85 74 75 100 92 82 75 63
185 135 106 103 112 134 104 101 127 107 99 67 79 89 73 69 57 84 102 100 94 117 168 200 176 181 187 169 170 141 131 117 122 126 123 119 121 109 117 95 98 101 78 114 123 101 97 55 48 91 97 115 95 74
107 106 112 111 133 130 98 89 83 80 76 74 77 74 50 40 83 108 112 107 137 172 179 176 191 154 133 116 119 103 107 115 101 105 108 116 91 76 77 102 109 119 132 128 115 96 94 78 72 86 83 94 106 101
109 90 103 113 104 96 77 63 67 64 46 65 78 56 40 77 90 118 129 104 111 144 142 137 131 134 125 96 79 76 62 82 76 96 122 145 140 115 73 83 108 89 97 126 98 91 94 67 67 104 105 98 88 80
100 70 53 34 29 26 24 38 32 36 68 66 48 70 105 118 152 117 133 65 91 106 111 122 114 96 85 94 85 82 84 111 155 155 169 182 158 117 95 94 64 73 68 87 75 76 74 62 59 76 90 74 76 80
66 33 42 64 64 73 72 72 98 101 95 92 110 149 159 173 156 160 103 78 80 73 67 80 100 97 94 99 112 104 95 116 172 148 151 146 133 129 122 102 86 86 72 67 82 80 69 54 46 48 68 70 77 87
34 54 76 79 104 108 111 130 132 119 122 157 219 212 191 192 194 139 107 75 65 78 83 80 82 71 95 107 85 87 103 122 126 109 110 124 115 109 111 113 102 75 69 67 74 80 77 71 55 51 48 58 74 93
90 107 117 92 125 132 153 189 202 205 189 225 221 235 237 212 152 124 95 88 99 125 119 84 51 43 56 69 82 92 103 121 113 87 79 88 117 111 107 97 90 91 83 71 64 65 58 55 51 50 48 59 66 73
93 140 139 139 159 147 165 188 190 166 192 215 217 220 211 190 141 127 107 102 102 73 46 42 26 39 68 86 94 120 172 161 149 133 126 106 90 82 87 90 85 84 82 78 72 63 57 49 46 46 58 63 80 111
126 134 142 142 102 114 129 159 191 196 199 199 199 205 178 176 203 167 179 132 86 101 114 114 128 152 156 160 149 143 124 144 153 141 116 99 92 91 88 86 79 73 69 68 65 60 52 47 47 47 53 64 83 93
125 113 133 20 -82 105 136 138 135 151 159 204 166 206 234 241 202 223 175 136 146 150 139 127 125 122 134 114 90 99 110 98 96 92 100 98 100 95 85 79 74 71 69 77 83 81 79 76 72 81 92 122 130 137
95 120 114 101 77 62 69 90 82 77 163 219 203 125 109 103 154 182 179 154 111 104 90 79 77 78 85 88 97 105 112 105 111 115 106 97 93 89 77 70 68 74 87 101 110 102 105 100 97 113 130 144 150 146

GFSWCAN_con_3kmhel_021.txt.gz
Helicity
255 140 113 111 113 101 91 84 85 94 93 105 128 142 150 155 153 96 92 115 78 86 69 63 81 93 109 112 113 81 117 103 142 146 111 118 171 211 308 260 186 145 157 157 195 168 80 91 123 129 137 142 89 111
285 166 149 130 111 106 100 90 79 84 95 92 106 129 148 172 170 109 110 112 109 98 66 74 88 92 89 69 108 110 111 90 83 142 111 200 239 335 319 281 212 201 180 170 209 238 180 116 140 133 124 134 140 145
142 216 140 149 107 100 93 95 94 85 94 99 97 112 132 152 183 129 116 116 115 102 99 101 97 94 89 84 85 133 98 108 132 163 202 262 293 365 327 244 220 240 227 197 190 219 166 119 104 180 242 271 261 233
90 163 129 110 122 74 86 87 100 100 97 97 103 111 128 144 160 136 128 115 125 106 103 95 93 85 114 103 108 110 116 166 177 219 279 315 310 281 302 255 234 261 215 192 196 125 82 81 211 195 233 208 131 150
63 106 100 155 185 122 94 89 90 105 103 100 105 112 119 128 141 137 124 112 109 115 81 84 84 107 122 106 98 138 169 193 200 251 308 288 265 287 289 282 323 287 227 221 217 123 152 207 207 203 164 33 34 64
54 39 94 115 166 192 145 116 111 105 109 109 113 105 111 113 118 142 153 127 124 116 125 119 108 125 153 162 147 148 181 222 257 262 250 269 245 212 217 283 225 147 170 142 161 194 230 149 200 135 46 57 93 120
37 35 39 125 123 169 155 125 116 118 132 125 119 117 101 94 157 160 139 115 98 138 137 111 109 99 137 166 177 198 230 241 226 230 280 280 212 206 292 269 231 229 257 273 225 198 192 200 112 86 130 122 118 108
38 34 20 75 114 114 189 151 124 146 140 129 122 105 114 172 166 155 156 135 137 150 123 132 157 195 171 162 156 171 217 213 205 256 275 218 232 245 304 293 227 250 272 312 298 289 213 135 164 113 84 107 100 85
41 32 37 67 98 102 169 213 209 161 143 150 163 198 209 215 211 184 178 230 265 165 137 190 224 143 185 184 185 214 150 164 215 261 259 217 273 323 297 260 261 232 203 161 149 135 124 119 82 71 79 78 54 20
39 26 58 76 106 104 158 216 245 196 253 256 344 250 292 267 279 237 258 199 180 267 328 320 299 253 209 212 201 222 239 216 212 248 194 300 372 361 308 254 197 130 102 82 109 141 121 91 74 62 40 7 -12 -10
44 22 33 58 99 89 95 261 230 323 430 414 416 464 365 397 410 320 319 239 262 272 223 224 300 300 295 259 244 218 260 212 255 283 311 342 358 242 269 240 172 170 128 104 74 53 51 49 60 57 34 13 34 83
51 33 20 19 46 77 52 201 332 381 388 320 351 471 450 414 403 244 319 381 354 347 303 273 251 282 213 150 158 121 146 154 226 252 264 294 244 307 250 202 156 102 83 70 68 60 77 87 68 54 59 96 106 106
66 48 36 29 20 47 75 97 209 197 166 319 370 401 345 363 349 343 421 512 473 277 227 213 261 161 125 155 147 162 160 232 269 280 280 244 201 172 141 118 98 104 101 102 75 96 84 70 78 113 104 106 109 109
69 70 54 63 50 41 40 60 161 89 69 234 354 589 488 345 363 367 339 259 174 150 115 129 158 142 154 171 175 225 242 240 299 296 202 221 152 90 87 114 125 115 92 90 92 77 92 107 99 105 115 109 112 120
74 89 89 92 44 40 76 115 108 106 96 112 130 319 312 171 131 99 82 95 112 105 119 127 143 129 158 181 203 234 252 238 184 175 168 120 101 108 104 122 106 106 103 93 99 112 110 106 104 92 94 107 108 112
83 100 114 82 85 83 72 104 113 96 95 74 69 103 53 95 93 62 53 68 74 101 122 135 131 144 155 190 218 207 208 161 180 171 117 115 110 121 112 110 103 103 105 105 114 116 104 98 95 86 102 115 112 116
130 146 68 110 91 105 133 106 116 117 105 113 107 73 51 49 20 32 56 66 69 103 116 123 137 124 177 184 175 146 158 164 146 144 110 115 117 105 97 94 96 100 102 105 102 92 89 96 104 94 89 89 111 99
127 88 82 83 121 146 131 111 103 105 117 83 91 57 75 86 79 91 77 81 98 107 108 128 153 193 160 132 150 139 127 140 123 123 117 110 103 93 94 85 91 106 107 100 99 93 103 90 71 67 86 111 120 83
99 90 100 97 117 110 101 92 84 88 85 78 88 85 90 95 109 100 85 89 108 106 141 155 142 107 108 99 88 106 88 89 115 117 135 110 96 86 87 91 103 104 103 96 92 100 107 96 87 84 107 129 132 106
186 177 147 155 126 117 105 84 116 88 54 67 84 98 108 109 100 100 94 102 112 129 143 126 110 106 75 59 75 108 118 114 138 114 92 101 97 90 93 102 109 98 97 89 95 98 89 91 92 89 106 102 111 103
279 248 254 227 182 136 95 89 108 74 70 92 93 99 103 93 98 97 93 107 133 143 127 117 139 130 138 135 129 132 131 155 148 150 131 103 101 110 115 111 101 106 101 96 87 77 90 112 100 99 92 91 109 114
241 203 210 182 148 109 87 90 72 84 96 84 89 87 83 80 75 88 107 128 125 132 158 150 146 131 112 101 106 143 119 111 128 141 125 127 125 118 113 116 105 96 107 99 93 91 98 107 107 94 93 103 108 99
246 256 196 121 90 109 86 123 119 109 86 78 92 102 97 95 87 93 98 85 56 61 86 78 71 83 81 86 100 95 114 127 125 120 117 127 127 118 107 104 127 127 108 102 94 100 114 100 91 83 88 109 97 101
170 135 100 106 107 105 99 105 103 111 120 118 114 117 99 89 85 95 87 78 59 79 78 78 79 69 76 77 93 97 110 122 107 115 134 137 107 97 106 106 121 131 136 120 96 89 98 94 82 86 84 90 99 98
110 123 89 105 92 97 103 91 103 114 121 126 137 122 96 91 108 101 91 73 62 75 84 94 92 102 95 97 101 107 121 143 153 151 109 106 97 93 86 76 81 102 109 97 87 79 84 84 89 88 85 83 77 76
102 68 67 45 67 80 72 101 95 117 127 117 80 77 82 105 111 72 81 49 68 83 100 133 141 127 101 96 87 99 110 107 106 113 104 91 97 90 75 59 59 78 131 121 93 77 78 77 71 62 60 53 54 62
92 77 49 42 63 83 109 107 106 108 97 75 70 93 103 101 69 74 83 105 124 130 167 161 166 163 139 136 143 118 128 112 114 116 98 101 85 89 84 75 70 107 126 101 87 84 77 69 69 63 60 59 60 59
50 40 60 49 77 86 101 91 71 52 58 87 131 117 103 95 98 120 156 173 170 180 161 138 131 149 158 147 129 116 103 99 109 105 114 134 147 147 155 135 127 119 99 80 88 99 94 83 67 61 57 56 54 56
52 52 80 87 92 68 51 63 59 69 88 121 127 129 126 132 167 171 137 127 130 151 172 163 144 157 132 138 132 127 131 124 108 73 78 89 107 124 122 106 107 116 102 93 91 90 82 76 74 67 68 62 56 67
38 56 74 65 66 41 42 68 69 84 98 123 130 139 143 164 164 163 180 174 154 143 151 165 177 160 120 82 77 86 101 134 160 139 117 120 120 101 90 90 95 92 84 81 80 84 92 98 90 98 105 110 117 129
55 57 76 78 57 56 77 112 116 121 137 120 143 160 143 180 218 216 203 151 140 127 126 108 93 90 66 68 78 86 106 140 139 133 119 116 111 105 95 88 85 82 79 79 89 88 90 90 94 105 121 135 139 125
62 67 84 80 76 88 94 106 99 104 111 124 111 142 168 216 236 188 128 107 112 145 124 101 98 86 110 101 116 132 134 121 139 138 136 107 91 83 82 84 78 74 79 82 91 98 99 112 109 116 117 127 125 126
109 101 91 79 80 99 99 101 112 72 87 97 112 117 136 163 168 123 92 79 52 67 93 86 68 65 64 64 74 67 67 53 57 70 78 75 73 77 75 79 80 89 94 99 109 101 107 117 117 118 118 115 112 108

GFSWCAN_con_3kmhel_024.txt.gz
Helicity
269 129 120 111 99 108 113 113 109 97 92 96 106 128 150 160 135 96 93 109 91 91 74 81 86 89 101 95 104 94 117 109 138 145 133 109 98 82 117 163 176 196 228 191 176 170 66 120 109 119 108 103 102 113
223 250 132 115 105 99 105 115 122 120 108 105 118 128 144 159 144 109 101 115 127 107 89 96 103 109 115 106 120 108 136 104 114 159 121 118 118 133 152 191 203 197 156 179 180 167 88 70 91 89 115 109 193 194
163 168 265 113 108 102 99 101 107 119 121 108 110 129 146 158 160 114 108 118 118 107 109 98 96 92 106 120 125 135 142 147 136 145 129 146 160 168 210 194 157 174 142 195 143 112 47 95 69 212 179 158 164 67
108 140 156 223 121 101 102 100 106 102 109 104 97 107 133 156 162 128 122 126 131 112 109 100 93 108 119 98 99 123 126 169 170 157 182 195 198 156 239 216 227 142 119 116 103 77 41 99 171 210 200 161 74 33
59 113 177 260 206 115 117 106 98 99 98 97 94 92 104 132 145 139 135 144 141 131 77 87 110 129 147 123 95 105 118 161 168 198 223 204 221 246 282 296 265 124 94 151 172 152 154 218 265 197 140 74 75 53
52 73 111 161 179 150 107 99 81 96 101 101 103 96 95 103 124 139 126 113 141 144 125 105 133 150 158 135 110 117 129 152 181 191 217 235 243 209 198 254 174 129 115 159 174 205 230 246 159 62 87 65 91 37
49 60 69 112 197 180 106 87 63 82 98 101 96 99 102 119 147 159 151 123 142 154 141 126 109 159 190 184 189 166 171 176 184 216 264 253 223 203 295 272 197 265 241 198 198 186 178 86 11 50 66 51 55 49
60 56 77 86 150 199 182 106 100 113 110 101 98 115 142 168 140 141 171 148 142 146 152 164 166 164 118 143 148 156 160 173 200 245 292 261 183 231 277 285 260 262 217 240 195 166 90 34 46 62 66 71 77 91
69 63 67 73 86 149 154 121 133 129 123 144 160 157 177 189 185 187 144 162 160 147 138 175 195 131 155 193 175 153 147 168 186 262 251 200 255 229 252 271 271 182 151 132 149 123 114 90 70 76 86 78 70 56
77 78 68 77 75 77 136 115 80 127 180 261 320 230 212 239 199 217 193 181 187 191 245 278 282 239 168 189 184 125 133 159 213 241 214 275 320 295 279 276 230 211 181 126 112 134 114 93 95 76 42 31 65 63
82 81 67 68 85 48 78 112 94 111 306 352 326 345 319 297 355 246 236 240 247 344 322 356 324 301 308 248 247 162 183 214 254 266 274 304 283 207 239 218 207 150 102 116 117 88 94 91 72 56 62 78 85 89
79 76 66 54 74 35 9 148 207 277 361 314 377 437 388 328 292 229 283 280 301 375 332 261 331 332 312 291 286 234 289 300 349 262 289 320 242 221 213 171 117 97 121 110 91 97 89 65 66 89 89 90 102 96
77 85 73 41 31 36 45 122 78 157 408 521 405 384 290 310 344 339 367 489 484 270 257 302 350 302 282 275 355 323 315 339 231 273 302 258 165 128 119 115 113 110 110 92 85 81 78 82 104 110 109 104 99 85
79 94 73 42 30 29 74 88 144 132 199 281 383 452 381 261 351 379 408 414 333 320 338 363 401 338 196 223 203 264 248 218 283 327 205 161 92 68 83 94 93 91 106 85 85 83 104 113 108 118 113 98 94 91
71 82 70 56 31 35 106 128 151 78 176 264 320 352 367 292 212 258 256 256 219 149 199 250 235 171 210 201 188 210 215 249 157 136 139 90 70 92 110 98 76 79 93 96 91 99 108 108 112 92 87 89 90 93
65 78 86 70 55 70 111 142 110 57 69 96 169 229 172 273 259 145 117 124 81 81 89 95 138 134 156 146 140 129 174 132 147 132 104 102 101 108 97 84 69 81 93 89 87 91 96 110 106 74 81 90 74 76
66 98 66 72 73 82 56 33 47 62 81 84 89 74 38 33 26 25 34 34 42 66 90 75 70 102 105 99 100 107 130 151 116 99 109 99 86 73 68 70 85 91 83 89 95 97 96 92 104 92 80 55 70 84
123 73 62 59 100 159 150 149 140 149 157 93 81 42 29 41 48 48 54 65 62 61 64 84 103 111 104 93 123 118 86 86 89 126 122 95 61 69 75 69 66 76 91 102 115 97 90 98 84 72 64 58 80 90
91 68 84 101 128 130 179 181 172 136 119 98 73 60 56 64 78 76 75 82 99 104 108 98 86 61 66 69 79 83 81 82 91 110 82 65 72 74 69 63 81 88 98 97 90 93 90 83 79 76 79 92 108 101
101 155 149 202 156 109 119 90 116 76 83 69 64 67 71 73 73 80 79 82 86 93 83 56 51 66 78 69 66 84 100 79 81 73 75 73 67 60 69 78 86 84 88 81 82 87 75 69 73 80 100 115 118 98
191 172 217 156 205 136 77 64 79 78 73 72 79 78 80 93 93 86 88 99 115 92 63 63 84 77 82 81 74 73 74 69 69 81 71 78 93 101 89 82 74 81 85 89 100 89 83 70 72 90 102 109 101 99
217 196 249 233 163 101 86 90 88 75 72 64 75 76 69 63 65 76 88 92 78 78 104 100 63 44 38 31 38 48 45 57 76 91 97 104 106 92 82 77 89 91 92 111 113 133 111 93 93 94 89 81 78 90
243 254 218 202 126 110 91 108 83 84 68 65 71 79 71 71 80 80 76 65 40 62 47 30 27 33 31 31 41 37 50 60 67 73 88 95 97 101 105 95 84 86 81 79 105 126 118 91 66 67 80 85 90 83
304 234 207 189 132 105 84 87 84 92 94 92 84 85 82 86 77 90 84 52 52 50 43 32 47 50 60 54 49 53 70 80 91 109 127 125 112 94 86 83 82 74 70 77 91 102 96 94 77 77 78 76 69 66
179 183 152 137 99 93 90 82 91 105 106 90 93 92 89 87 103 95 83 59 45 43 48 63 76 87 99 107 102 75 52 62 73 106 108 105 88 87 76 73 82 74 65 60 62 77 92 96 95 88 74 74 66 59
180 136 116 85 87 86 81 91 86 96 102 104 106 123 101 119 112 77 53 56 70 100 139 179 165 152 155 159 141 121 117 173 168 129 94 89 74 84 85 75 77 71 77 66 74 76 80 89 84 79 78 75 68 59
97 82 77 72 71 76 90 96 95 101 117 133 122 113 105 97 61 86 127 168 172 173 174 174 165 139 123 109 107 109 121 139 129 128 137 131 121 127 119 111 110 118 104 90 91 79 78 76 71 66 65 65 61 59
88 73 63 61 79 72 86 90 91 97 106 97 100 88 97 93 135 184 202 179 144 115 103 108 124 130 123 139 144 149 161 149 119 102 110 138 151 168 189 169 140 108 86 90 91 78 69 65 64 66 66 65 68 80
61 51 63 81 85 77 71 77 81 74 84 96 108 114 135 174 159 160 136 119 78 64 76 84 100 107 127 139 150 167 179 130 112 86 82 102 113 175 167 146 119 108 106 94 87 87 87 86 97 91 90 92 96 107
59 35 72 74 72 67 70 57 80 99 91 106 117 126 139 164 192 179 159 144 128 116 104 84 82 94 107 100 92 120 119 104 131 85 96 119 119 110 110 109 109 107 99 83 78 86 96 101 104 112 124 126 132 137
68 71 72 65 61 75 87 93 90 97 102 102 127 121 167 201 212 220 218 166 136 107 105 124 113 116 125 129 135 143 135 119 120 121 115 87 86 92 98 104 100 87 72 72 77 85 94 103 115 131 140 141 134 131
65 66 67 62 63 92 95 111 112 110 108 105 120 146 170 201 210 185 167 135 110 125 138 119 109 102 59 44 52 58 55 53 56 67 85 76 74 77 72 62 56 58 62 67 83 104 118 125 130 133 124 126 122 120
65 75 86 80 81 80 87 87 88 74 83 108 134 146 161 167 173 154 98 82 64 79 71 51 51 47 54 76 82 69 57 47 49 46 54 59 62 59 54 56 59 62 69 86 103 108 123 139 129 118 118 113 109 107

GFSWCAN_con_3kmhel_030.txt.gz
Helicity
96 113 114 119 110 104 97 95 98 93 95 109 122 135 143 150 141 115 80 103 116 102 98 173 163 147 149 119 115 94 136 118 136 127 109 101 124 120 176 143 142 134 127 111 97 114 73 216 195 267 206 162 180 193
90 93 101 108 113 112 109 107 108 102 103 110 121 133 146 154 155 125 77 95 124 108 90 140 147 166 191 239 139 100 106 87 94 122 115 117 142 169 207 188 117 168 133 134 147 123 123 128 227 282 285 325 238 140
165 84 94 109 114 118 112 113 114 113 114 119 128 138 151 164 171 152 87 115 92 92 73 78 89 129 130 179 216 120 149 95 110 178 127 137 167 147 179 160 160 156 96 171 169 178 113 274 327 338 221 178 79 80
296 198 106 117 116 122 131 123 121 124 128 137 141 148 161 178 190 176 109 125 116 99 96 79 58 85 111 135 157 184 156 214 233 185 184 177 173 94 151 143 179 151 137 142 128 136 188 375 300 196 170 93 66 53
271 289 279 158 130 124 130 137 137 131 130 138 149 160 175 196 204 123 105 120 130 142 64 70 100 83 107 105 104 120 139 141 166 189 200 161 162 186 230 274 218 170 143 145 156 268 247 263 187 154 162 94 86 92
146 259 261 270 200 136 130 122 132 135 137 134 143 164 181 202 196 116 110 101 153 175 108 91 92 93 87 96 110 115 134 175 185 185 160 180 186 189 221 242 152 114 159 320 327 262 234 189 151 138 132 122 96 153
65 136 250 317 224 188 139 133 124 124 132 135 150 167 183 218 203 205 173 129 176 159 135 113 76 131 163 143 188 203 214 205 175 158 175 180 208 245 279 298 178 190 273 386 308 202 207 149 173 148 71 99 172 120
44 47 111 187 261 235 207 146 119 119 121 136 133 130 153 156 146 162 163 141 166 158 161 161 145 136 138 215 201 220 201 202 177 221 251 206 187 273 266 180 110 159 362 223 180 129 138 167 130 45 123 176 166 127
44 49 47 91 129 208 291 207 113 111 134 144 133 126 152 162 170 156 112 141 149 178 159 205 197 142 163 227 210 167 165 166 206 237 253 216 280 308 191 173 168 364 188 138 125 141 195 176 139 170 170 165 133 126
69 57 56 62 38 69 145 178 178 130 121 112 148 162 180 177 119 146 150 175 191 212 257 226 247 259 198 181 182 177 178 176 181 193 221 281 346 219 255 240 282 255 188 141 175 218 208 178 165 170 150 117 143 137
82 85 79 79 58 84 88 77 84 158 246 230 239 268 207 191 187 194 169 189 213 224 206 276 305 296 266 272 247 210 202 197 181 195 261 301 281 162 175 276 264 216 128 136 221 249 181 173 151 134 114 132 138 117
82 81 81 82 56 61 46 79 120 216 262 281 276 294 271 288 266 220 244 275 240 227 304 316 353 409 368 347 283 235 255 228 221 248 333 343 259 260 186 177 153 150 165 187 174 163 158 140 118 137 133 115 116 121
74 70 69 59 38 62 94 130 152 147 224 293 300 320 331 287 287 317 343 380 438 483 384 353 362 316 346 306 268 248 206 271 353 383 446 382 301 196 164 139 136 141 213 200 155 145 108 109 118 103 102 97 108 111
59 59 60 38 33 45 54 75 90 131 138 134 175 280 315 262 376 359 384 419 392 315 286 332 370 243 333 303 272 282 417 472 468 506 443 297 170 108 101 101 72 136 144 141 118 112 99 88 89 97 101 109 124 114
56 37 32 49 53 63 78 96 93 66 95 117 157 181 221 224 222 184 256 288 269 248 294 337 369 348 395 342 389 477 457 475 456 409 356 182 126 144 154 121 125 138 119 106 109 104 93 91 98 99 111 114 112 130
41 35 29 28 48 58 66 58 66 49 86 88 103 99 97 135 189 239 249 213 221 261 280 316 390 400 491 488 507 542 568 567 314 197 61 91 102 128 137 142 134 132 124 98 89 89 90 99 105 106 118 126 117 107
44 51 41 39 44 48 56 35 62 86 88 99 90 93 112 139 152 168 200 225 177 277 433 441 505 534 354 415 456 327 347 178 61 78 115 128 112 101 113 110 99 82 74 77 82 91 102 119 125 123 107 91 84 99
61 47 51 33 39 35 52 60 54 71 97 80 83 55 72 77 67 88 102 106 134 143 137 169 107 170 180 192 151 123 68 64 75 102 102 93 101 114 106 89 73 79 82 90 102 115 121 127 119 112 89 107 109 117
75 59 44 45 76 69 66 64 48 66 69 49 49 35 26 22 44 53 50 54 51 50 62 82 101 102 107 77 70 65 78 63 51 56 75 68 60 75 73 73 78 81 86 93 101 120 130 114 103 99 105 103 151 154
101 138 126 101 75 66 82 75 63 75 83 63 64 56 57 53 44 44 57 53 32 29 36 44 45 69 79 90 96 85 73 63 102 108 84 73 72 78 72 89 99 99 103 105 113 119 117 95 102 106 119 164 146 111
75 61 119 142 84 59 101 115 90 86 84 98 79 68 73 65 61 50 55 73 67 46 44 54 70 65 73 86 86 92 97 100 80 79 74 70 76 81 80 90 100 125 127 128 120 104 107 104 104 123 139 127 117 98
63 72 93 129 80 81 75 85 88 89 85 71 80 74 68 70 70 70 68 58 42 46 50 49 59 73 73 74 83 77 71 73 73 73 73 76 75 73 76 96 112 117 129 134 116 114 116 113 114 127 120 109 92 90
90 107 106 104 97 74 71 167 104 99 93 70 68 80 72 70 75 62 61 36 41 61 65 74 85 90 90 88 82 74 66 72 82 98 109 102 97 97 83 71 81 85 94 121 126 164 170 134 106 109 101 91 93 84
76 90 131 113 130 114 87 73 99 99 83 67 72 77 66 65 57 61 58 65 96 117 130 121 89 84 64 67 66 104 151 167 157 157 158 131 106 102 95 101 98 114 130 150 142 154 157 123 124 131 110 98 87 91
22 52 73 125 135 125 111 90 89 83 81 73 72 68 58 56 64 67 81 135 165 157 173 188 207 167 160 186 214 236 213 176 142 120 115 114 122 133 127 115 105 85 112 123 120 118 135 178 146 103 96 97 92 98
47 63 105 80 91 95 78 87 75 79 85 82 83 94 74 82 88 93 167 193 185 130 144 153 163 171 188 176 161 146 122 114 120 111 109 107 98 104 113 112 99 104 115 104 70 117 169 111 104 101 87 75 92 92
44 47 78 120 119 135 153 155 126 96 86 89 88 94 99 101 90 168 145 191 137 135 146 153 160 156 139 137 137 126 133 128 116 98 70 72 163 249 219 185 171 131 106 100 89 116 128 104 102 95 86 92 96 104
75 68 82 105 117 123 116 113 109 91 93 91 96 99 106 135 170 136 131 131 150 151 147 141 134 103 108 122 124 132 145 122 104 91 90 117 204 148 152 175 178 170 120 98 93 95 99 110 117 103 106 137 127 105
76 91 97 103 106 109 104 96 86 99 93 88 99 126 153 144 132 142 150 156 145 145 144 138 140 135 147 148 158 154 128 103 101 115 126 117 125 114 120 126 133 131 115 115 124 131 152 100 87 95 106 118 100 97
89 75 93 95 97 96 90 109 97 91 102 113 118 117 133 133 146 148 146 145 148 143 139 138 130 137 150 154 146 129 99 93 81 76 77 96 107 93 82 80 85 92 95 99 102 112 115 113 103 107 123 96 102 129
58 74 82 84 86 83 84 76 73 83 105 128 142 178 176 147 143 153 173 162 146 144 144 142 139 140 139 130 118 93 71 98 91 84 96 85 91 91 93 87 76 71 80 86 87 91 92 96 113 117 110 106 113 116
69 86 81 86 88 81 78 98 104 105 102 104 136 150 139 126 165 130 134 141 131 139 132 126 129 117 85 50 70 55 62 70 69 76 71 76 82 73 78 87 91 88 84 88 98 98 97 98 100 117 135 118 120 120
62 68 79 79 77 83 85 76 74 86 86 114 175 183 205 212 205 147 122 133 134 128 116 94 65 45 45 70 50 58 96 73 54 61 75 85 97 94 83 76 71 88 92 88 92 87 96 107 116 125 107 104 113 115

GFSWCAN_con_3kmhel_033.txt.gz
Helicity
101 111 114 119 112 101 89 83 80 83 92 102 109 132 149 151 150 89 94 101 69 89 143 179 225 214 162 180 131 90 180 156 160 149 109 85 89 101 151 149 123 153 166 146 172 168 109 106 203 209 244 323 296 199
135 116 133 127 116 110 98 87 85 84 93 103 111 129 149 158 168 107 106 112 97 84 68 112 152 183 202 186 121 102 85 85 108 131 109 107 122 134 147 153 153 208 140 135 177 135 99 185 253 369 325 304 240 186
102 109 116 119 119 125 113 101 93 89 95 110 122 138 157 176 202 125 93 123 99 91 119 115 133 139 185 222 183 125 128 80 128 110 104 111 115 130 144 133 182 190 174 216 235 126 239 372 425 408 343 287 176 149
184 83 87 103 119 125 119 113 104 94 96 111 130 149 168 191 223 131 99 138 96 91 98 97 84 104 129 183 169 149 130 203 192 164 140 130 126 109 142 142 196 130 170 202 225 239 315 337 323 262 241 174 101 118
226 154 100 105 112 117 115 114 117 112 110 116 131 155 176 193 203 106 113 139 129 85 54 79 99 91 115 150 141 153 153 163 182 194 179 134 137 173 206 240 203 176 181 219 189 178 242 217 231 205 154 107 117 171
294 317 190 150 125 116 111 124 128 130 133 140 150 168 188 203 173 121 114 137 170 130 100 105 79 93 111 131 138 203 181 181 173 154 144 150 174 190 198 218 158 124 138 179 251 316 320 273 189 132 128 147 183 213
311 264 280 242 163 128 120 125 135 141 151 160 164 179 202 208 163 153 95 108 196 146 125 121 90 135 141 179 216 203 204 181 164 133 155 155 176 253 266 259 213 146 242 325 320 311 296 181 160 141 149 154 226 232
140 278 270 281 262 178 129 128 124 150 155 160 164 174 179 177 161 185 181 173 160 151 161 151 128 143 166 193 183 186 182 183 217 209 231 182 189 259 239 208 144 146 347 315 240 221 200 159 138 100 128 245 249 204
34 63 211 249 283 248 195 128 128 136 138 134 144 191 210 220 200 172 179 192 152 164 170 194 186 131 174 199 188 179 188 170 191 220 221 223 208 226 163 162 189 287 272 211 185 198 188 153 210 267 265 246 189 172
52 45 12 113 271 295 200 158 128 116 124 120 180 185 181 162 171 170 158 168 181 212 229 201 213 220 189 167 176 167 174 165 185 167 186 207 247 200 168 262 297 319 272 258 293 302 305 269 251 230 194 169 158 131
78 67 49 44 52 135 157 170 144 137 196 224 227 198 164 178 174 188 187 182 187 207 189 250 280 275 271 263 234 191 191 179 157 151 181 198 231 170 226 351 359 292 304 281 259 285 270 231 202 168 157 138 125 119
83 78 64 67 59 49 65 79 163 256 278 246 189 216 207 229 199 160 180 228 211 170 282 263 296 330 348 320 263 218 249 207 199 228 269 267 270 319 300 274 254 228 226 296 269 245 205 182 153 136 112 96 99 96
74 70 48 57 71 82 91 111 121 131 170 228 281 263 230 222 204 203 254 281 282 312 279 267 258 219 256 247 271 257 238 269 301 309 340 330 281 257 221 211 244 215 238 199 154 143 139 112 104 98 74 76 86 88
70 68 42 56 60 63 92 89 74 116 126 138 145 184 213 180 282 331 341 331 337 278 231 234 256 196 240 227 250 283 317 359 359 434 409 300 261 189 161 139 113 100 103 126 121 109 98 76 60 65 76 77 92 94
27 26 41 52 51 52 61 86 99 69 107 126 129 170 180 189 187 148 171 209 220 187 203 239 277 267 298 279 322 341 338 385 387 397 362 228 140 183 144 114 111 113 106 113 95 82 69 68 78 73 75 77 97 114
25 27 35 24 31 33 30 30 44 54 101 120 130 125 97 123 130 126 129 152 143 154 187 215 276 290 358 382 376 416 444 515 444 281 38 7 43 85 135 130 120 126 88 60 60 68 65 71 72 73 87 96 108 116
40 16 -7 11 31 31 27 19 59 86 90 105 112 118 94 119 108 105 102 116 124 157 215 244 298 330 287 348 389 349 424 274 45 -34 -10 24 67 94 110 118 95 59 42 53 62 59 62 70 90 114 101 116 131 101
32 22 14 19 46 44 46 41 50 64 89 85 101 91 81 91 73 86 79 90 107 110 125 134 133 187 213 226 225 99 66 52 58 44 53 81 106 105 100 77 51 51 52 51 54 67 86 102 117 139 149 128 106 86
55 45 44 45 65 54 66 74 65 95 78 42 55 60 64 62 80 74 75 86 86 79 98 113 121 113 109 97 116 92 58 43 44 51 72 71 74 61 47 44 46 52 54 65 76 103 128 129 150 142 132 123 103 107
95 119 108 77 63 80 91 85 68 89 89 64 68 76 70 59 45 51 60 74 74 83 102 111 110 98 79 62 69 66 56 69 87 103 92 85 77 73 63 57 60 66 78 87 112 126 138 125 105 111 127 130 148 141
58 58 97 77 73 64 77 82 96 85 80 92 79 86 89 67 77 59 50 32 43 49 59 46 53 44 46 50 59 67 84 95 90 90 73 77 79 87 83 87 94 93 99 127 139 130 114 113 122 127 143 147 123 128
58 62 60 83 83 77 85 61 72 83 83 64 102 92 97 89 72 56 49 54 45 50 59 54 52 67 76 75 82 92 102 119 107 92 98 111 103 93 91 92 103 102 116 126 126 130 135 128 142 139 148 152 104 109
71 60 62 41 111 124 85 127 105 81 74 53 86 85 80 72 64 68 56 47 53 68 69 81 72 75 93 93 139 239 244 171 179 193 173 132 110 108 104 107 119 122 113 104 100 115 122 124 157 193 173 135 125 124
50 56 60 50 75 108 83 85 77 115 95 72 72 79 74 75 67 78 70 89 140 150 171 231 195 147 154 259 252 254 234 179 152 137 126 98 82 89 94 103 111 126 161 132 106 103 108 113 136 196 191 168 120 116
18 39 67 83 98 110 97 100 84 68 79 89 112 83 63 66 69 63 72 119 132 163 173 201 272 260 258 236 181 139 122 102 94 85 89 112 125 135 114 118 150 177 130 101 91 95 90 97 106 102 75 58 87 90
35 40 56 80 95 114 101 113 85 92 104 98 81 79 72 81 82 71 123 121 134 138 137 156 176 182 179 159 149 140 121 101 109 112 121 159 170 164 137 128 109 101 106 108 97 93 102 127 147 113 83 96 82 91
5 8 37 66 98 106 126 124 132 119 98 81 86 91 95 91 81 112 131 149 136 127 104 117 140 158 156 136 117 123 115 115 124 109 105 139 191 139 118 120 126 115 116 113 112 117 117 122 107 98 99 98 101 164
60 49 37 49 68 78 77 113 95 80 86 94 116 99 93 108 110 109 114 110 126 144 143 140 139 140 129 126 132 126 128 138 152 157 162 228 164 142 172 164 140 153 134 134 142 136 134 141 144 118 114 120 140 178
35 77 95 98 97 91 93 94 84 105 99 80 87 111 115 123 115 110 124 139 152 166 167 150 150 152 175 180 172 154 132 106 116 140 149 130 127 123 81 72 78 85 92 104 124 140 140 155 116 101 102 179 186 206
67 75 53 51 63 64 64 79 74 81 110 105 99 111 122 119 139 173 162 162 166 165 162 167 160 159 172 182 165 150 107 82 71 86 88 83 76 67 55 46 50 63 75 91 117 136 149 146 131 160 178 164 149 130
31 42 56 67 64 64 63 60 62 84 107 118 140 158 143 126 133 149 181 169 144 172 178 173 166 149 151 149 134 119 112 89 97 84 74 67 68 68 61 65 76 91 106 124 138 148 172 123 105 131 138 121 104 83
43 57 55 63 69 63 64 81 88 94 98 102 129 125 111 122 146 133 129 149 132 145 137 138 147 132 106 84 101 85 93 77 57 70 65 59 65 63 63 77 90 102 110 107 107 130 82 69 80 98 89 96 92 87
64 72 78 80 74 78 89 91 76 92 107 130 167 166 153 149 147 111 91 103 105 111 121 109 88 74 74 86 79 98 72 65 76 65 70 84 62 59 69 79 84 74 60 61 84 48 45 55 65 70 78 79 78 74

GFSWCAN_con_3kmhel_036.txt.gz
Helicity
101 102 108 124 130 100 72 74 80 89 115 128 143 147 160 154 147 94 106 98 74 101 187 187 187 166 165 152 153 128 184 151 149 148 129 106 108 119 141 123 94 107 137 129 193 202 117 108 226 205 123 194 213 244
85 117 130 128 123 96 73 72 78 84 105 128 146 156 165 164 140 88 112 120 90 103 121 141 204 216 161 108 116 125 108 89 104 139 129 120 124 122 147 127 156 154 137 127 165 134 123 131 153 222 285 290 270 259
167 138 130 124 120 106 79 81 80 82 99 122 137 157 176 183 141 70 101 116 103 111 137 143 187 219 212 179 96 125 115 90 107 99 88 103 114 115 121 105 146 127 198 190 228 160 173 224 290 291 310 294 287 254
123 92 118 128 116 122 96 92 88 89 99 112 128 152 174 199 152 94 103 118 91 97 110 115 115 144 172 171 140 108 111 179 165 144 134 120 118 91 117 135 145 119 171 185 218 245 298 272 247 255 285 270 256 196
201 121 107 116 117 129 112 99 99 100 104 114 130 151 170 184 155 122 115 139 97 78 58 111 109 138 156 150 152 160 190 184 166 159 150 108 113 149 166 193 161 171 175 197 182 148 207 163 212 261 264 224 159 172
188 138 138 138 126 114 121 111 112 120 120 125 140 152 158 141 97 107 103 112 147 96 89 96 81 121 193 162 198 213 187 172 175 150 136 132 165 173 166 194 139 132 150 147 147 205 210 217 231 237 206 133 134 235
218 220 132 128 124 113 112 135 132 132 128 131 146 169 159 121 102 101 71 86 153 110 99 106 97 140 157 163 160 163 165 145 146 141 162 169 190 211 216 217 186 140 179 227 270 315 322 234 208 178 209 228 324 298
293 248 235 149 116 119 128 142 143 135 134 139 151 159 163 160 122 150 182 195 142 122 135 120 107 129 163 158 145 138 147 167 184 177 196 158 184 229 219 173 145 204 288 276 238 231 203 212 213 178 277 285 274 226
283 317 302 246 198 142 139 146 139 146 146 152 174 180 181 177 153 141 194 175 157 141 124 150 134 84 148 163 156 149 160 164 186 206 208 209 216 211 144 141 149 175 196 212 275 275 266 283 312 351 280 226 193 171
150 290 341 315 210 161 132 141 137 137 145 183 218 210 182 174 170 172 164 154 183 214 220 186 201 182 153 157 177 167 169 171 161 139 181 212 239 199 147 150 143 183 211 283 379 387 379 387 320 194 172 144 147 144
54 53 149 251 303 176 143 128 135 150 208 197 209 202 153 189 172 183 172 177 182 190 191 225 232 233 228 204 185 162 164 162 140 141 185 209 227 166 169 225 298 334 363 420 420 382 369 150 113 124 120 142 134 110
83 79 65 49 113 241 188 187 210 216 205 181 142 155 179 191 183 161 191 212 187 150 216 181 207 240 249 227 196 157 189 188 158 220 230 237 238 211 234 278 317 352 374 371 267 107 84 113 106 113 110 105 97 89
82 89 98 92 89 83 172 276 250 210 247 283 226 213 188 192 164 174 224 222 219 252 213 186 177 167 182 183 214 216 198 228 251 233 265 290 277 238 261 320 325 220 173 122 110 104 111 105 90 83 77 69 75 76
76 94 95 100 104 102 90 80 116 220 219 250 302 229 184 184 216 258 269 251 248 202 155 151 154 134 165 173 184 197 234 283 268 295 328 264 232 199 209 183 193 179 151 128 110 99 89 71 62 56 60 61 81 82
71 74 74 117 111 101 91 74 76 93 100 156 174 221 222 186 177 139 163 179 211 197 198 210 207 185 188 181 199 259 303 348 365 438 381 307 207 131 159 118 109 93 90 96 71 60 53 51 61 59 62 69 93 120
55 55 81 82 90 85 85 72 78 74 106 107 111 95 91 136 142 132 130 142 123 124 143 153 174 188 239 269 313 344 369 463 422 394 292 156 128 100 110 101 89 85 77 59 50 53 56 61 62 65 80 96 122 149
36 24 35 74 86 68 52 45 80 116 104 119 126 137 113 132 119 105 95 99 87 106 138 148 187 191 191 233 295 338 398 337 238 103 1 -52 -37 29 63 72 80 77 52 46 54 55 60 57 70 96 91 102 153 164
30 34 44 81 76 62 60 42 52 66 94 101 116 119 113 120 102 105 100 102 95 102 121 130 101 164 176 184 186 131 82 45 32 23 -0 15 50 66 75 81 72 68 71 67 64 60 68 79 92 124 144 161 174 134
28 43 67 92 69 41 44 63 56 67 75 69 82 91 86 93 91 79 84 88 78 75 95 118 128 122 118 122 134 111 80 66 58 44 61 86 85 92 98 96 89 90 85 76 70 80 100 113 146 161 178 185 177 150
59 85 82 77 64 60 63 59 62 76 78 66 71 82 77 63 57 60 74 86 88 93 112 111 102 94 70 62 50 52 54 61 79 103 113 119 109 96 99 105 100 84 83 88 93 101 118 134 152 178 191 191 201 172
61 54 68 71 72 75 76 75 102 83 77 102 89 97 97 90 90 92 95 85 105 98 102 78 62 52 59 60 61 68 95 92 88 90 80 96 145 162 160 147 129 114 103 99 101 106 123 140 139 130 150 188 168 195
54 58 57 78 101 107 101 75 84 83 91 79 93 85 99 98 94 97 88 103 89 83 80 73 64 62 71 115 156 165 138 168 198 225 236 186 160 140 135 113 92 80 79 85 113 126 108 98 106 114 133 151 158 194
59 61 55 78 113 134 106 98 120 90 114 83 92 94 85 83 89 87 95 89 106 123 119 106 92 122 190 202 236 296 286 226 210 183 163 144 118 101 93 101 117 113 109 122 122 118 117 113 111 126 130 113 114 166
63 79 75 114 129 149 105 118 98 102 117 98 83 78 72 79 81 105 101 116 115 140 169 183 167 199 212 237 246 245 234 177 146 127 122 104 103 119 125 128 130 136 142 125 128 120 113 125 137 146 153 162 161 171
102 68 76 108 93 102 102 102 104 102 71 65 97 80 60 84 95 100 104 111 129 146 159 191 233 225 212 197 169 159 157 129 124 118 136 132 120 136 151 163 163 142 132 121 116 118 123 130 132 140 136 155 212 148
68 40 49 35 80 80 67 74 61 59 80 84 62 66 80 93 94 82 82 99 148 155 139 147 149 155 173 146 129 131 110 96 95 121 155 159 149 131 118 109 83 73 107 114 104 105 102 98 101 112 112 110 107 102
56 46 36 40 47 90 112 93 112 109 94 85 68 96 94 81 68 101 99 136 134 133 121 119 125 139 136 129 122 119 114 126 124 111 109 175 151 139 115 104 107 98 91 91 95 106 109 107 104 108 104 98 103 115
19 31 27 54 66 69 78 107 103 98 95 102 133 118 120 118 107 105 106 115 121 117 130 136 153 158 162 141 118 113 146 144 155 166 171 157 140 125 108 93 88 78 90 103 98 112 136 142 141 140 139 131 131 209
30 45 48 75 83 73 61 52 62 78 82 73 89 105 106 101 96 97 120 123 144 143 141 162 185 180 197 183 162 129 113 105 150 175 182 165 167 142 73 48 48 63 66 72 90 132 141 144 153 183 180 199 200 197
32 42 40 76 77 57 66 66 64 79 82 80 79 88 101 111 141 151 144 155 169 181 178 169 158 184 180 174 170 163 133 120 97 97 116 119 104 70 54 46 47 63 72 71 91 117 122 155 178 157 173 144 113 88
62 66 57 58 65 50 25 33 47 71 88 94 115 121 119 118 143 161 180 138 155 180 193 193 195 170 164 162 128 134 132 112 121 97 79 69 69 57 45 55 66 71 65 67 71 73 82 82 81 79 77 65 68 66
35 39 34 40 42 45 51 64 71 82 87 105 116 121 125 141 145 127 134 138 168 178 144 130 153 131 101 89 83 79 91 70 83 90 93 72 57 47 49 64 65 61 63 51 57 61 56 72 56 60 61 69 69 69
59 61 65 71 76 81 76 88 92 92 131 133 140 130 120 118 120 100 85 95 98 95 96 92 82 87 82 78 74 63 81 96 102 102 92 72 62 54 54 58 70 73 60 57 63 66 70 75 69 70 67 61 54 49

GFSWCAN_con_3kmhel_039.txt.gz
Helicity
138 115 113 119 125 107 107 110 113 111 137 151 165 170 197 194 116 101 86 100 75 105 188 152 178 138 142 141 140 114 182 144 151 149 117 97 119 103 140 133 99 103 119 118 186 197 134 145 263 202 119 155 132 199
148 126 127 126 123 127 105 109 107 106 110 123 152 192 189 175 105 89 128 152 137 123 142 180 175 163 134 102 126 145 107 97 108 161 144 132 144 140 156 140 161 140 123 118 129 111 120 85 121 172 195 184 209 246
125 142 148 144 141 158 89 111 104 108 113 122 147 190 186 151 102 89 122 139 132 149 179 184 221 237 231 150 95 130 140 93 113 106 112 124 146 137 141 115 148 103 157 174 190 130 126 137 140 174 204 209 239 257
126 128 140 133 182 166 82 108 108 107 122 139 165 180 172 144 119 105 125 135 105 121 119 150 182 183 223 167 120 106 103 155 143 140 136 131 136 100 122 136 142 101 155 152 168 142 165 153 167 213 279 297 292 266
146 135 131 138 186 97 84 105 104 110 122 142 166 181 162 158 151 127 123 150 102 88 69 141 151 183 199 147 168 175 186 151 140 146 136 101 114 148 155 168 151 174 182 205 181 109 145 124 154 256 319 280 263 295
158 109 115 155 160 80 92 101 99 112 118 137 154 161 142 125 129 124 125 128 161 104 89 105 122 151 174 175 210 207 167 145 146 123 112 115 149 161 157 144 107 108 119 131 129 140 170 173 212 257 265 250 276 298
149 134 153 159 153 116 85 91 99 108 114 126 138 130 117 99 87 101 75 99 160 103 92 103 103 114 118 136 138 150 162 141 132 128 140 154 166 184 182 181 160 112 123 150 170 216 223 172 169 209 246 294 327 328
238 149 134 150 159 148 115 83 95 101 108 122 131 144 145 104 65 106 166 160 121 94 109 99 101 104 116 115 123 135 137 153 179 175 168 156 182 201 165 153 132 144 161 182 176 209 167 210 248 318 362 397 336 288
320 218 160 145 143 146 139 126 96 101 118 139 132 128 137 128 109 100 165 151 135 113 105 116 103 64 116 130 135 134 150 160 159 180 176 167 190 184 129 140 142 108 110 125 211 244 299 332 387 454 433 310 231 174
310 271 221 166 142 132 144 136 135 150 162 164 178 153 131 131 144 147 138 128 154 173 178 149 145 142 133 148 155 145 148 151 141 124 153 190 216 187 176 129 111 116 158 205 302 340 423 495 591 324 162 137 110 90
265 232 186 179 133 113 119 144 143 172 224 211 169 152 123 178 154 155 150 155 164 165 164 191 199 186 191 173 156 151 140 135 119 135 167 190 201 160 194 188 205 260 330 393 441 448 416 205 153 175 131 82 73 80
207 289 309 330 227 140 142 164 182 189 190 177 131 171 181 175 166 155 202 197 181 146 191 148 159 208 201 169 157 137 162 164 156 195 231 207 197 221 236 286 325 355 398 383 233 122 125 129 68 57 61 75 91 95
124 174 287 303 309 206 187 192 222 161 149 200 180 173 156 171 178 171 202 250 236 235 199 170 165 144 144 162 201 184 153 176 210 211 235 248 236 247 297 348 300 219 178 167 157 125 76 44 52 62 67 66 70 76
103 126 169 181 198 287 305 268 269 269 226 179 160 164 161 150 180 256 286 215 219 158 123 140 143 143 154 153 156 165 189 222 226 237 249 241 227 265 311 258 282 268 188 134 101 84 78 67 51 46 41 57 73 69
105 120 134 203 158 141 140 171 232 275 291 180 166 130 192 220 212 197 182 201 209 171 149 150 154 122 122 143 168 214 229 263 281 311 334 245 277 273 229 217 190 150 121 105 65 46 30 33 43 55 55 61 74 94
61 99 185 170 154 122 81 78 89 74 172 193 207 186 127 177 191 168 169 162 130 141 157 161 176 184 189 201 239 260 304 334 322 375 338 329 264 209 147 121 106 86 75 53 39 39 50 60 58 55 64 74 94 121
52 73 139 147 125 85 79 74 98 127 99 105 108 121 83 94 94 85 82 83 76 108 146 140 170 165 174 200 252 258 249 237 251 220 165 129 94 51 78 103 36 61 61 60 66 71 66 63 69 76 74 76 98 126
43 70 105 132 89 66 68 65 76 98 126 131 131 133 134 145 133 138 123 115 114 125 146 170 147 214 218 210 204 160 133 92 101 96 59 45 77 27 42 71 92 94 89 89 87 79 73 68 60 67 82 108 151 163
30 38 79 96 59 34 39 52 50 59 67 75 95 122 122 121 117 105 104 105 94 91 109 131 168 152 125 105 95 69 47 44 48 47 57 78 76 84 118 139 136 132 128 115 110 95 78 74 81 104 125 147 158 171
57 77 103 84 57 33 34 38 49 47 54 54 78 95 88 78 80 82 88 92 88 89 113 110 97 94 90 93 90 93 85 67 84 105 118 161 181 185 176 143 131 122 112 111 97 91 92 88 100 114 122 130 137 141
54 76 84 67 63 61 40 47 67 56 60 85 87 96 97 86 85 86 84 88 107 104 102 85 92 105 115 123 125 110 126 105 117 113 142 172 179 164 152 135 120 114 100 98 109 115 120 107 116 121 121 125 129 129
46 61 43 67 76 88 80 88 80 76 99 80 105 94 106 115 111 94 96 141 137 126 123 112 109 117 154 152 151 169 143 169 179 193 208 169 156 145 138 127 115 123 127 129 125 114 113 118 127 125 123 131 136 146
48 53 58 73 103 125 103 124 130 123 135 120 109 129 115 106 103 114 132 140 142 133 122 137 156 184 189 184 205 250 231 183 186 182 169 148 140 140 139 153 146 137 137 147 138 127 122 121 121 128 134 154 158 165
44 71 91 120 140 155 134 163 146 151 145 126 120 122 97 94 89 122 126 130 121 122 149 147 159 191 196 205 209 210 205 168 146 157 139 115 133 154 151 159 145 143 140 114 109 108 108 116 122 127 123 122 126 129
92 98 110 137 116 145 156 154 161 149 132 106 115 86 67 92 107 101 85 91 121 143 157 165 193 181 159 160 159 170 180 154 134 131 140 134 137 157 162 150 139 136 117 109 110 110 109 101 89 84 84 94 102 117
91 79 96 64 74 96 99 116 102 82 96 89 56 62 67 79 81 74 88 100 134 152 146 130 124 153 178 168 156 154 149 130 111 120 131 139 131 105 107 111 102 86 93 84 88 93 77 70 70 71 81 104 123 135
48 53 44 47 43 25 45 69 69 84 80 67 50 75 85 83 68 95 84 108 115 135 140 133 127 141 135 131 127 119 110 114 101 97 122 125 116 93 64 63 72 69 78 71 71 66 61 65 74 94 119 136 144 127
28 42 30 38 24 36 44 49 52 46 52 68 111 120 87 85 97 104 91 92 111 117 123 137 154 149 152 140 120 121 140 125 138 143 121 105 87 73 82 94 89 60 62 59 53 55 65 71 84 100 108 79 102 122
67 21 26 34 33 59 48 47 46 54 81 71 86 91 98 118 93 83 98 108 109 104 114 131 158 154 166 159 157 147 152 163 181 182 163 129 128 120 105 77 62 65 61 59 49 66 61 68 72 82 111 101 82 74
-20 -31 -31 -19 31 43 48 47 54 71 80 85 71 72 76 85 112 113 103 117 130 146 152 152 138 154 150 158 165 170 143 112 81 87 96 104 109 82 79 76 72 61 60 63 68 71 63 82 71 80 89 94 97 88
-16 -6 32 30 31 36 30 31 38 48 48 60 73 83 88 94 121 145 133 116 127 140 160 174 192 177 172 171 153 143 117 75 91 85 67 62 71 71 68 63 58 53 59 62 61 64 67 64 60 62 74 77 80 81
28 24 25 32 23 27 48 51 58 74 79 83 90 90 107 133 145 132 115 127 150 165 132 124 152 134 85 85 74 58 54 53 52 48 56 65 69 58 51 52 55 63 66 65 71 77 75 73 68 67 67 65 67 69
50 54 57 55 61 61 72 80 95 86 111 116 128 121 124 126 124 107 109 117 104 89 91 93 89 76 56 53 54 45 35 41 50 60 75 74 68 62 58 56 64 73 73 75 78 81 84 85 85 74 63 63 60 61

GFSWCAN_con_3kmhel_042.txt.gz
Helicity
85 73 94 97 107 135 120 69 91 108 150 157 155 148 120 94 106 118 134 76 84 117 230 180 166 140 148 170 160 114 220 134 144 147 117 82 86 69 103 105 81 94 111 109 175 194 119 115 198 133 86 107 88 91
116 130 136 144 151 112 89 91 113 138 156 153 164 148 141 121 111 209 161 101 88 131 180 193 175 173 135 112 129 162 99 97 96 152 134 131 135 139 141 111 150 122 123 127 131 112 97 24 92 105 124 138 136 162
122 141 158 151 97 88 103 113 136 112 139 155 173 146 129 113 109 112 89 94 134 163 205 193 221 236 216 137 97 119 140 99 129 121 112 132 146 140 140 109 140 95 147 177 161 97 102 84 82 107 140 142 158 194
155 149 152 121 82 111 114 117 124 128 151 172 180 159 150 133 131 149 163 132 115 139 127 172 201 193 252 171 135 116 122 188 161 148 138 131 143 110 135 143 142 101 133 130 124 86 128 89 104 135 168 201 257 293
158 152 117 108 94 144 101 124 142 142 164 187 139 150 167 171 178 210 169 184 139 90 96 154 171 235 257 186 190 186 178 146 129 132 132 111 129 156 169 177 149 171 173 179 141 99 124 93 108 147 195 206 236 287
145 147 120 147 216 143 118 113 131 144 144 164 123 133 145 138 148 158 171 168 188 126 89 131 120 158 205 206 224 209 166 141 138 119 119 132 157 156 165 136 80 74 90 114 114 111 121 137 136 166 200 204 245 321
122 124 119 174 204 188 112 116 104 134 130 132 138 137 131 114 138 138 104 153 185 122 115 129 117 134 142 140 137 148 152 135 135 132 153 152 159 166 173 162 133 150 127 129 135 146 142 134 135 174 233 324 407 473
149 132 162 208 263 241 92 103 113 118 114 138 141 126 107 85 80 163 230 220 165 102 114 95 106 94 115 102 107 120 121 129 158 152 150 152 161 174 125 102 113 111 99 117 149 144 132 179 255 276 318 393 476 475
152 142 167 168 187 135 105 90 106 123 111 112 105 103 132 140 127 117 184 158 121 96 105 101 78 59 85 95 99 105 129 137 138 160 169 155 176 152 151 144 142 130 116 105 164 193 246 296 318 397 525 549 358 187
222 187 161 142 142 115 75 107 106 128 135 133 145 147 143 112 125 118 117 113 138 146 136 103 94 98 94 105 122 123 138 143 147 130 145 176 192 199 181 139 101 85 110 177 235 249 331 411 516 408 212 143 160 135
255 200 157 157 142 135 111 80 123 180 171 178 182 170 107 145 97 98 106 122 141 142 129 131 132 136 144 136 142 146 141 136 134 140 161 185 167 193 187 193 198 227 285 338 348 313 241 207 185 193 230 178 93 45
311 275 206 155 173 165 158 148 155 153 171 163 95 129 149 154 140 136 164 139 128 100 135 126 148 186 192 159 153 140 169 159 153 176 220 188 193 213 215 218 229 218 250 279 239 220 213 213 181 146 86 39 28 49
320 332 363 316 226 199 203 202 199 148 175 178 125 107 94 116 151 150 156 160 141 159 145 132 154 148 160 168 176 149 146 169 212 229 231 245 233 253 248 255 277 268 255 262 253 208 157 113 63 38 33 43 60 62
267 349 378 347 297 243 265 260 209 188 201 175 188 194 184 175 191 204 184 159 153 136 142 144 154 148 144 154 154 154 178 201 202 227 229 234 224 198 220 212 221 202 196 187 146 101 79 59 42 32 27 42 58 55
87 185 315 422 401 259 222 272 288 271 228 185 189 158 208 190 180 142 155 171 158 131 151 171 158 155 158 171 172 191 206 229 219 244 248 221 256 211 227 224 204 163 110 83 62 56 42 32 30 31 44 49 54 67
82 129 253 200 154 167 176 197 216 237 246 184 183 170 165 174 149 185 208 193 183 183 183 168 153 156 182 212 228 234 270 247 210 191 170 202 247 247 193 139 104 91 84 61 47 42 42 42 47 58 63 60 62 67
94 133 268 189 89 69 65 66 164 297 205 227 269 248 184 193 165 121 105 102 91 128 157 146 183 146 144 176 197 210 194 144 128 134 183 267 259 204 139 102 92 86 82 64 58 74 79 85 81 83 86 77 82 94
82 164 185 163 70 69 83 94 92 85 109 132 147 120 103 120 110 116 115 122 128 138 151 165 155 209 209 193 178 126 125 108 94 92 102 112 97 132 103 94 96 94 97 98 102 107 107 103 93 82 80 77 88 103
35 68 108 117 54 37 53 76 82 98 107 116 127 142 142 130 130 123 114 106 104 108 121 145 171 161 136 111 83 35 46 49 65 92 104 95 109 128 148 153 149 140 127 118 110 90 84 97 108 102 99 100 103 111
44 69 115 69 35 21 35 39 42 44 67 64 83 100 95 89 86 87 93 93 86 92 113 120 105 88 86 88 74 66 68 67 108 137 136 153 164 196 189 152 133 115 105 106 92 85 75 75 81 89 100 103 106 119
45 86 84 55 43 42 24 34 43 37 39 58 70 74 74 79 79 87 90 87 94 97 104 82 88 113 129 137 136 118 138 107 111 114 134 159 175 171 165 151 126 112 93 78 66 64 73 77 90 97 101 106 125 139
44 61 20 48 44 50 45 61 49 49 66 59 91 90 91 95 94 96 77 117 118 107 114 119 110 111 139 149 157 174 148 174 188 210 245 194 169 158 150 134 106 88 73 69 67 69 87 103 107 112 116 119 125 134
25 38 39 68 69 92 65 82 81 83 83 81 94 110 106 110 106 94 128 128 132 137 138 144 158 167 171 167 187 217 198 168 185 185 173 163 153 135 116 100 89 89 95 107 107 107 104 104 107 123 127 129 127 123
24 39 50 68 89 79 82 109 110 130 136 131 128 136 133 125 88 128 134 122 115 118 129 142 156 185 176 191 200 190 183 156 170 185 163 127 138 145 133 124 114 103 102 87 86 88 92 102 107 112 97 104 99 99
61 84 96 108 90 102 112 118 127 137 138 143 153 137 107 95 128 117 112 92 97 111 136 154 162 159 144 144 159 174 183 156 136 146 161 144 129 128 127 120 110 104 98 102 103 107 105 91 68 63 57 63 68 78
88 88 85 66 81 106 81 123 109 107 119 125 126 112 81 94 107 100 81 85 104 119 140 147 144 159 183 173 150 143 141 120 112 129 129 142 141 118 119 118 113 95 101 91 89 95 78 53 46 43 46 53 64 69
21 25 10 6 27 43 50 48 55 82 99 79 69 85 102 107 80 82 74 89 84 110 131 146 144 137 126 132 133 125 114 115 124 135 132 133 127 108 74 74 80 61 75 77 70 65 59 49 46 53 56 56 53 54
-20 8 12 16 28 30 32 29 39 38 28 33 65 80 83 78 86 102 106 99 120 117 121 136 147 138 141 139 132 130 144 137 162 158 142 127 99 75 67 76 78 68 73 70 71 71 68 64 62 51 57 70 69 70
37 51 51 22 18 32 43 39 48 65 56 49 62 58 57 84 92 101 98 93 88 88 95 108 129 132 153 158 165 163 164 134 122 135 118 91 99 82 102 101 87 85 91 95 85 71 57 62 62 74 75 84 82 81
38 -3 37 28 31 42 42 26 29 32 60 81 67 70 89 95 101 97 88 97 103 107 108 114 101 108 113 130 132 143 138 119 94 104 98 81 75 75 77 77 82 83 79 81 81 81 80 93 88 100 100 99 87 79
-17 -18 4 17 24 25 25 28 37 26 36 59 60 69 73 79 119 145 144 123 116 111 123 139 151 123 129 132 124 127 117 70 67 50 48 54 52 64 66 67 67 68 70 74 76 76 77 78 77 77 88 90 81 72
18 21 23 32 21 18 43 45 47 54 62 61 67 71 86 110 124 117 114 107 118 137 123 118 130 105 77 77 70 55 54 48 43 44 44 49 55 58 62 63 67 77 78 76 78 82 83 78 73 75 75 75 78 77
38 46 57 54 57 49 60 67 84 73 96 95 102 89 89 91 93 84 104 106 94 87 97 82 82 79 67 52 49 39 32 41 33 27 27 37 46 51 62 66 71 83 88 83 80 81 81 79 77 73 73 74 73 77

GFSWCAN_con_3kmhel_045.txt.gz
Helicity
137 128 92 67 78 92 74 66 68 60 69 78 85 86 76 66 138 199 181 173 105 103 170 181 180 158 194 213 185 166 230 147 149 142 122 95 103 86 100 93 72 85 100 92 137 132 59 76 106 99 72 72 81 49
117 103 103 110 88 56 49 52 66 84 90 90 86 70 72 53 118 157 157 153 120 140 151 198 166 150 145 144 171 193 112 111 98 156 124 106 121 115 108 79 107 86 94 100 92 97 91 29 47 89 107 109 127 133
149 141 110 89 69 74 82 98 101 89 82 80 67 71 87 86 123 141 164 173 112 175 260 205 234 209 183 152 141 153 156 101 132 129 103 116 125 115 122 88 107 75 127 134 121 80 65 41 71 108 140 133 127 131
167 149 118 111 118 124 118 112 104 98 102 96 86 100 63 100 155 164 141 113 44 106 136 247 220 201 260 172 126 119 126 174 159 148 139 129 138 96 123 135 117 99 108 107 100 65 96 87 89 107 124 150 170 191
152 144 118 138 116 111 114 137 128 125 126 118 130 133 122 140 162 318 235 120 48 65 99 185 227 259 283 198 188 192 189 166 145 151 144 129 126 143 157 149 106 131 129 133 98 89 101 94 97 98 123 145 193 267
123 167 121 101 130 139 152 162 139 114 159 161 169 162 156 160 237 222 127 71 121 87 93 156 158 190 241 258 284 260 206 162 145 129 121 133 149 154 159 118 84 89 96 96 107 96 93 108 111 118 149 190 241 306
127 113 130 176 191 171 123 138 154 172 134 147 146 134 124 116 151 126 82 121 155 122 101 129 144 166 184 170 167 181 177 143 135 133 157 159 160 164 163 127 136 136 126 119 125 99 119 144 148 180 220 267 386 436
159 194 166 170 169 148 144 130 108 129 167 117 113 128 119 103 113 214 321 283 142 106 134 115 128 125 163 131 129 145 131 135 158 138 138 153 153 157 114 132 143 139 129 135 139 129 133 171 228 267 321 419 495 419
134 150 143 175 222 149 125 147 149 155 156 136 141 95 158 199 170 162 225 196 164 115 115 114 88 76 96 96 104 109 123 128 114 146 158 139 153 140 149 129 151 150 142 127 175 195 222 275 295 358 393 386 289 204
149 132 157 142 147 168 118 92 143 138 136 118 126 136 173 178 206 186 171 149 159 166 136 92 93 93 90 100 116 109 122 122 134 132 133 165 182 179 167 139 104 89 98 150 204 201 234 296 301 256 216 199 187 181
149 137 149 166 198 199 178 144 165 178 119 142 178 186 171 166 136 141 138 141 152 127 109 95 92 89 110 95 113 125 120 118 130 143 154 174 164 161 176 190 169 176 192 214 225 200 211 196 174 157 150 150 124 82
204 172 172 182 192 303 163 137 176 172 152 129 107 169 176 190 151 143 167 153 124 104 113 101 117 127 142 139 131 130 153 155 156 182 191 154 160 189 184 176 165 155 159 143 129 123 128 144 136 131 104 68 46 38
342 311 264 209 165 147 133 128 107 100 135 161 226 244 207 208 171 158 130 149 132 105 98 110 141 134 130 142 164 147 155 189 168 185 191 212 209 195 186 181 163 128 129 136 147 154 146 116 69 55 63 56 40 39
323 380 364 298 257 199 175 176 141 145 122 105 149 179 119 106 121 121 114 107 101 105 130 139 149 126 135 153 139 162 174 158 176 181 197 191 166 208 162 139 123 134 159 150 121 96 91 88 77 49 42 44 53 54
261 262 369 388 297 301 292 247 192 142 139 102 110 108 131 122 133 125 131 123 132 124 141 145 132 130 139 146 146 167 162 164 147 137 137 145 129 160 167 153 152 135 119 117 99 90 72 55 50 50 70 71 65 54
150 199 367 324 231 228 260 264 229 174 190 149 176 147 144 177 159 145 145 148 156 155 151 153 137 132 158 161 174 168 179 161 131 125 129 155 162 156 165 166 161 138 118 102 83 75 74 75 66 67 67 67 58 57
85 115 226 201 142 162 172 201 221 201 159 143 156 178 152 160 143 147 149 147 136 154 155 144 173 162 145 181 189 153 143 105 87 120 126 143 177 174 165 156 120 106 118 113 105 104 91 74 58 64 75 72 56 43
112 172 143 61 -7 41 137 158 183 157 171 232 182 188 185 180 143 127 96 81 82 83 81 112 86 144 148 150 140 112 110 92 107 114 132 155 173 190 169 145 157 156 150 135 106 89 87 78 82 71 68 59 55 76
44 102 117 95 34 39 58 68 77 129 158 122 104 111 115 107 114 102 96 102 104 97 108 131 146 142 131 117 101 69 72 98 110 123 125 150 159 174 202 196 186 170 148 131 118 98 83 86 74 67 66 69 65 64
21 63 124 96 34 28 61 72 70 70 98 98 118 131 130 129 115 117 118 112 102 101 125 125 113 99 90 95 80 58 68 84 124 135 151 168 154 175 194 176 160 136 128 121 109 104 89 81 73 63 61 66 73 86
31 68 78 19 38 30 26 42 51 51 49 66 74 83 79 78 82 89 93 82 81 88 94 84 85 94 107 122 124 115 131 100 108 101 135 168 165 173 177 166 152 142 127 112 99 84 70 54 52 60 67 76 93 99
38 48 9 33 16 24 28 46 34 27 43 49 68 63 74 76 75 74 78 98 97 87 87 95 94 105 135 155 163 169 155 175 199 227 258 205 177 171 174 153 136 123 113 95 67 49 44 61 77 86 95 94 86 94
10 18 25 47 34 50 30 46 50 57 60 63 77 87 84 87 87 85 107 98 93 86 94 113 137 142 156 158 173 211 194 178 194 187 179 179 171 152 138 133 124 107 79 71 65 80 89 94 102 105 103 98 86 84
21 29 43 55 73 53 47 71 62 76 77 85 92 101 105 108 100 129 126 123 103 107 112 125 141 173 175 185 188 176 169 147 161 187 169 152 152 142 118 96 83 85 95 93 105 112 115 115 112 108 97 86 78 60
23 56 56 77 74 87 107 102 108 114 110 112 112 130 122 120 138 135 145 123 126 135 137 128 141 154 148 136 141 158 167 145 141 151 161 136 105 93 104 109 117 127 120 124 135 134 133 117 116 102 95 80 67 62
25 51 56 41 63 84 56 93 81 94 127 148 138 120 115 139 163 153 109 104 104 113 126 124 128 160 171 146 129 132 132 117 112 117 118 128 136 129 137 141 135 130 121 109 106 113 113 105 99 92 83 74 64 63
-1 10 2 -17 7 26 58 51 39 41 63 90 102 96 92 162 153 109 86 87 73 92 105 124 120 121 118 124 122 114 109 120 131 137 136 144 145 139 130 132 126 100 100 110 105 101 93 86 81 75 69 63 68 75
-6 -6 -5 -10 -1 8 17 22 9 -0 12 34 69 79 78 83 95 116 97 79 85 83 107 128 132 119 118 116 107 105 134 144 164 158 150 138 119 110 104 89 91 98 96 91 85 80 78 72 69 69 71 72 74 80
24 14 30 24 15 27 30 22 28 49 52 39 56 68 48 56 71 78 79 70 67 61 73 82 106 109 128 140 158 163 135 118 125 145 138 120 113 97 100 107 102 95 90 91 89 81 70 78 89 90 92 85 80 84
16 20 39 43 37 28 36 41 38 25 39 57 57 51 68 84 103 90 70 67 66 74 82 94 89 91 104 111 121 142 142 132 122 122 109 99 86 80 81 82 85 78 82 87 93 97 99 110 103 113 114 108 106 102
-10 -6 17 30 34 23 17 22 30 27 41 51 54 59 63 56 85 121 119 97 86 87 97 113 121 113 130 138 132 128 125 97 83 63 53 59 60 73 74 69 72 77 81 86 89 91 93 98 104 103 101 99 97 95
7 16 19 32 27 24 38 46 47 52 51 51 56 54 64 81 93 88 99 95 109 126 117 111 118 110 79 79 76 68 62 70 75 71 62 69 63 63 68 76 84 82 82 83 83 85 90 95 95 93 86 80 79 85
43 48 60 60 66 64 66 72 91 82 95 89 97 87 86 91 94 77 86 94 92 96 103 90 76 66 59 52 53 56 53 54 50 38 35 42 51 55 67 76 75 74 73 74 78 86 90 91 89 81 73 70 69 72

GFSWCAN_con_3kmhel_048.txt.gz
Helicity
-11 -17 -19 2 49 87 60 239 197 129 132 88 86 66 60 58 63 160 165 140 129 134 157 185 172 164 187 172 156 138 164 144 151 136 125 105 90 94 89 95 69 73 88 97 121 97 51 100 83 88 122 94 113 101
-0 15 124 70 27 111 122 87 108 87 70 74 72 66 63 74 110 139 140 159 153 130 121 131 162 169 211 194 201 135 170 139 136 161 152 127 119 111 99 72 83 78 103 102 80 108 118 48 68 105 113 133 153 165
52 181 209 196 158 194 157 105 78 73 67 81 90 75 72 77 110 170 132 144 135 118 121 155 172 187 183 207 211 179 173 137 156 179 127 124 118 101 106 82 96 77 97 118 101 79 50 39 59 82 88 100 121 133
101 84 124 157 132 101 90 92 91 88 88 82 73 75 88 74 148 148 153 145 116 149 106 155 200 179 220 192 154 157 116 189 173 173 162 131 123 92 113 120 106 118 72 76 80 58 71 110 124 117 111 118 128 143
135 125 112 92 87 91 94 98 96 88 81 92 102 98 94 150 112 147 172 163 110 116 126 199 197 208 213 144 120 114 134 173 176 168 149 145 141 133 143 133 107 91 106 107 117 146 123 144 129 120 122 145 169 190
137 143 136 142 136 146 139 126 105 91 92 82 80 104 189 166 131 200 199 142 144 58 132 172 205 236 248 209 242 265 236 210 187 165 161 164 141 134 138 122 136 136 126 126 138 120 124 132 138 135 166 189 234 286
155 154 143 134 123 137 117 130 140 112 123 119 161 232 234 190 128 147 108 97 123 68 62 121 159 201 271 270 253 258 247 203 170 158 166 149 147 151 154 133 151 153 146 140 133 104 126 194 165 201 257 297 344 365
150 153 184 168 136 113 179 186 218 161 149 188 187 140 117 139 105 142 253 128 62 48 68 74 114 144 201 176 170 193 166 165 189 155 154 165 165 165 124 180 180 169 153 176 185 184 186 178 214 238 255 283 335 285
128 141 191 146 191 220 176 214 217 164 128 122 121 119 200 204 174 191 283 183 88 93 75 102 97 89 156 150 150 145 155 155 136 159 162 130 139 127 165 158 186 174 162 148 160 183 191 200 198 221 263 250 192 139
136 162 211 247 230 205 241 272 339 238 225 240 216 222 196 191 270 191 172 152 146 146 128 104 133 115 132 139 152 135 138 136 138 137 129 157 166 184 177 156 148 139 125 149 186 160 161 190 181 147 138 141 154 140
160 149 137 176 171 144 119 127 149 135 302 332 261 253 231 247 163 145 142 138 140 132 127 121 130 132 136 112 126 139 112 119 125 127 129 141 134 153 164 159 164 153 128 116 155 143 127 114 122 141 152 153 143 115
161 144 128 177 114 126 209 173 111 95 107 125 101 186 165 143 115 100 157 156 141 126 116 128 133 121 120 115 113 123 129 127 140 147 159 140 171 188 171 160 166 146 137 144 137 133 143 163 160 154 146 129 111 91
259 244 208 188 205 244 206 221 189 188 217 229 235 193 172 156 141 126 129 151 116 95 116 114 141 130 121 135 139 125 133 175 157 177 193 219 191 152 147 133 138 135 143 141 157 167 165 172 163 147 133 119 88 99
348 318 322 262 208 210 159 196 172 161 144 210 232 223 181 151 151 128 157 149 138 125 143 146 161 124 133 155 148 172 184 166 181 176 184 151 154 167 147 137 140 154 157 175 182 170 168 157 151 135 116 98 95 94
293 384 295 312 233 193 167 146 129 122 173 164 198 223 148 130 104 136 157 136 150 134 148 169 179 168 183 175 166 175 162 182 170 168 126 98 135 162 165 168 189 199 180 177 166 168 159 142 131 112 100 96 81 65
239 343 408 294 219 213 178 121 115 103 136 134 124 110 81 111 118 129 150 145 138 142 153 146 146 159 173 167 166 179 185 181 151 140 114 129 178 187 198 191 179 170 173 177 161 146 131 121 114 107 90 89 67 64
118 269 358 286 225 231 250 156 164 126 90 113 124 175 138 147 145 138 109 113 120 156 170 134 146 162 153 163 183 187 198 159 123 105 119 148 149 159 168 171 165 162 162 149 139 134 120 106 98 97 99 90 68 56
110 138 173 165 187 212 226 206 150 134 170 207 168 178 170 166 152 160 147 153 138 145 153 159 129 169 171 172 164 116 111 131 145 124 147 169 203 194 183 191 192 165 162 168 151 131 124 107 102 93 81 73 44 55
41 62 32 11 20 149 216 239 166 254 264 209 240 232 214 184 173 127 112 114 103 90 91 110 151 169 153 143 126 108 112 126 150 167 181 176 183 211 218 221 212 167 187 187 158 132 112 113 99 86 73 61 61 65
5 101 124 109 40 23 99 141 75 131 164 122 103 111 110 110 101 115 130 134 123 125 153 153 153 147 142 141 132 90 88 93 107 134 152 166 173 184 178 162 147 167 170 144 140 131 112 105 98 80 75 65 54 61
7 56 61 26 43 45 48 57 52 75 75 82 98 106 112 128 134 138 143 127 117 125 122 118 114 120 124 127 113 98 103 87 102 92 110 142 154 163 169 168 165 157 145 138 128 115 102 93 83 77 66 61 68 73
27 33 12 25 17 27 32 55 47 47 62 76 87 78 89 87 84 83 82 97 102 103 97 98 104 114 139 171 173 164 145 149 160 193 215 180 179 182 184 170 155 157 149 136 123 109 94 89 82 68 73 88 95 120
24 25 36 47 31 47 51 51 59 62 69 74 71 80 87 89 83 85 108 106 100 100 101 113 123 131 145 157 171 193 182 162 169 176 182 185 186 181 178 176 161 146 132 124 100 92 86 76 82 82 104 125 131 137
21 39 47 49 62 51 46 72 67 71 72 88 90 95 100 103 102 134 133 134 118 113 118 122 126 150 159 171 174 174 168 151 162 171 159 154 165 174 160 148 135 124 112 97 90 85 90 96 107 133 141 148 145 130
52 82 69 95 80 78 85 79 83 76 80 87 92 106 115 120 136 150 165 161 166 161 163 136 139 144 142 148 146 147 163 139 143 158 168 157 148 129 120 112 115 122 110 106 114 109 120 131 137 150 144 134 125 105
65 104 80 76 79 84 77 83 87 84 83 91 109 103 101 135 167 189 160 148 148 152 162 148 124 135 160 151 125 123 135 133 123 140 140 135 137 133 134 134 124 127 121 110 113 132 139 140 133 125 118 111 99 88
20 47 30 -9 13 31 47 56 61 72 82 90 92 95 103 166 181 136 101 112 102 111 118 132 128 125 128 129 125 125 123 127 135 140 137 143 148 152 154 154 150 129 105 115 110 109 114 109 102 96 92 91 91 92
-12 -16 4 -21 -24 -35 -9 -4 18 37 29 19 29 67 109 107 81 65 102 109 106 89 88 99 114 112 110 109 108 112 131 133 137 131 127 131 125 123 121 107 105 105 97 103 100 90 91 84 81 78 79 84 90 94
14 8 12 30 26 32 36 34 31 39 44 36 52 59 58 59 63 77 75 66 54 54 70 76 81 80 100 122 141 144 136 130 130 138 136 129 121 120 106 102 105 106 101 95 86 79 76 74 86 85 87 92 97 92
20 13 17 29 35 38 47 46 47 33 42 56 53 66 77 85 94 87 72 75 75 75 79 88 91 101 111 113 121 133 139 136 132 137 128 130 125 106 92 92 97 94 88 89 90 90 92 95 91 90 94 98 101 99
-17 -12 4 7 8 11 10 14 29 24 31 52 72 77 84 72 88 117 117 103 95 93 99 116 128 124 126 130 126 119 119 108 99 92 85 78 75 79 86 83 84 89 90 84 84 84 91 87 91 94 97 102 100 92
14 24 21 27 32 30 38 46 51 58 59 59 68 70 74 83 101 101 121 112 121 137 134 120 115 119 98 91 82 80 75 71 74 77 72 73 73 78 83 83 87 82 80 78 77 78 79 80 84 90 91 88 86 79
43 50 60 59 64 68 77 69 82 83 93 92 96 93 98 104 112 99 87 97 96 104 112 105 87 79 77 66 58 62 59 61 60 57 59 56 56 71 76 76 78 75 73 74 75 79 80 82 85 87 82 78 72 70